| time (UTC) | temp C | wind direction | speed KPH | gust KPH | rain 1hr cm | rain 24hr cm | rain mn cm | humidity % | barometer mb |
| 20260906105722 | 22 | 329 | 0.0 | 0.0 | 0.00 | 0.25 | 0.00 | 99 | 1017.8 |
| 20260906105520 | 22 | 329 | 0.0 | 0.0 | 0.00 | 0.25 | 0.00 | 99 | 1017.6 |
| 20260906105422 | 22 | 329 | 0.0 | 0.0 | 0.00 | 0.25 | 0.00 | 99 | 1017.6 |
| 20260906105321 | 22 | 329 | 0.0 | 0.0 | 0.00 | 0.25 | 0.00 | 99 | 1017.6 |
| 20260906105221 | 22 | 329 | 0.0 | 0.0 | 0.00 | 0.25 | 0.00 | 99 | 1017.5 |
| 20260906105021 | 22 | 329 | 0.0 | 0.0 | 0.00 | 0.25 | 0.00 | 99 | 1017.5 |
| 20260906104920 | 22 | 329 | 0.0 | 0.0 | 0.00 | 0.25 | 0.00 | 99 | 1017.6 |
| 20260906104821 | 22 | 329 | 0.0 | 0.0 | 0.00 | 0.25 | 0.00 | 99 | 1017.5 |
| 20260906104720 | 22 | 329 | 0.0 | 0.0 | 0.00 | 0.25 | 0.00 | 99 | 1017.6 |
| 20260906104521 | 22 | 329 | 0.0 | 0.0 | 0.00 | 0.25 | 0.00 | 99 | 1017.5 |
| 20260906104416 | 22 | 329 | 0.0 | 0.0 | 0.00 | 0.25 | 0.00 | 99 | 1017.5 |
| 20260906104316 | 22 | 329 | 0.0 | 0.0 | 0.00 | 0.25 | 0.00 | 99 | 1017.5 |
| 20260906104216 | 22 | 329 | 0.0 | 0.0 | 0.00 | 0.25 | 0.00 | 99 | 1017.5 |
| 20260906104017 | 22 | 330 | 0.0 | 0.0 | 0.00 | 0.25 | 0.00 | 99 | 1017.4 |
| 20260906103916 | 22 | 330 | 0.0 | 0.0 | 0.00 | 0.25 | 0.00 | 99 | 1017.4 |
| 20260906103818 | 22 | 330 | 0.0 | 0.0 | 0.00 | 0.25 | 0.00 | 99 | 1017.3 |
| 20260906103718 | 22 | 330 | 0.0 | 0.0 | 0.00 | 0.25 | 0.00 | 99 | 1017.4 |
| 20260906103518 | 22 | 330 | 0.0 | 0.0 | 0.00 | 0.25 | 0.00 | 99 | 1017.4 |
| 20260906103417 | 22 | 330 | 0.0 | 0.0 | 0.00 | 0.25 | 0.00 | 99 | 1017.5 |
| 20260906103317 | 22 | 330 | 0.0 | 0.0 | 0.00 | 0.25 | 0.00 | 99 | 1017.4 |
| 20260906103229 | 22 | 330 | 0.0 | 0.0 | 0.00 | 0.25 | 0.00 | 99 | 1017.5 |
| 20260906103017 | 22 | 330 | 0.0 | 0.0 | 0.00 | 0.25 | 0.00 | 99 | 1017.5 |
| 20260906102918 | 22 | 329 | 0.0 | 0.0 | 0.00 | 0.25 | 0.00 | 99 | 1017.5 |
| 20260906102816 | 22 | 329 | 0.0 | 0.0 | 0.00 | 0.25 | 0.00 | 99 | 1017.5 |
| 20260906102718 | 22 | 330 | 0.0 | 0.0 | 0.00 | 0.25 | 0.00 | 99 | 1017.6 |
| 20260906102513 | 21 | 329 | 0.0 | 0.0 | 0.00 | 0.25 | 0.00 | 99 | 1017.5 |
| 20260906102412 | 21 | 330 | 0.0 | 0.0 | 0.00 | 0.25 | 0.00 | 99 | 1017.5 |
| 20260906102312 | 21 | 329 | 0.0 | 0.0 | 0.00 | 0.25 | 0.00 | 99 | 1017.5 |
| 20260906102212 | 22 | 329 | 0.0 | 0.0 | 0.00 | 0.25 | 0.00 | 99 | 1017.5 |
| 20260906102014 | 21 | 330 | 0.0 | 0.0 | 0.00 | 0.25 | 0.00 | 99 | 1017.5 |
| 20260906101912 | 21 | 330 | 0.0 | 0.0 | 0.00 | 0.25 | 0.00 | 99 | 1017.5 |
| 20260906101813 | 21 | 330 | 0.0 | 0.0 | 0.00 | 0.25 | 0.00 | 99 | 1017.4 |
| 20260906101712 | 21 | 327 | 0.0 | 0.0 | 0.00 | 0.25 | 0.00 | 100 | 1017.4 |
| 20260906101513 | 21 | 327 | 0.0 | 0.0 | 0.00 | 0.25 | 0.00 | 100 | 1017.3 |
| 20260906101413 | 22 | 327 | 0.0 | 0.0 | 0.00 | 0.25 | 0.00 | 100 | 1017.3 |
| 20260906101312 | 21 | 327 | 0.0 | 1.6 | 0.00 | 0.25 | 0.00 | 100 | 1017.3 |
| 20260906101232 | 21 | 327 | 0.0 | 1.6 | 0.00 | 0.25 | 0.00 | 100 | 1017.2 |
| 20260906101217 | 21 | 327 | 0.0 | 1.6 | 0.00 | 0.25 | 0.00 | 100 | 1017.2 |
| 20260906101013 | 21 | 327 | 0.0 | 1.6 | 0.00 | 0.25 | 0.00 | 100 | 1017.2 |
| 20260906100914 | 21 | 327 | 0.0 | 1.6 | 0.00 | 0.25 | 0.00 | 100 | 1017.2 |
| 20260906100812 | 21 | 327 | 0.0 | 1.6 | 0.00 | 0.25 | 0.00 | 100 | 1017.2 |
| 20260906100714 | 21 | 327 | 0.0 | 1.6 | 0.00 | 0.25 | 0.00 | 100 | 1017.0 |
| 20260906100608 | 21 | 327 | 0.0 | 1.6 | 0.00 | 0.25 | 0.00 | 100 | 1017.0 |
| 20260906100509 | 21 | 327 | 0.0 | 1.6 | 0.00 | 0.25 | 0.00 | 100 | 1017.0 |
| 20260906100408 | 21 | 333 | 0.0 | 1.6 | 0.00 | 0.25 | 0.00 | 100 | 1016.9 |
| 20260906100308 | 21 | 333 | 0.0 | 1.6 | 0.00 | 0.25 | 0.00 | 100 | 1016.9 |
| 20260906100210 | 21 | 333 | 0.0 | 1.6 | 0.00 | 0.25 | 0.00 | 100 | 1016.8 |
| 20260906100108 | 21 | 333 | 0.0 | 1.6 | 0.00 | 0.25 | 0.00 | 100 | 1016.8 |
| 20260906100012 | 21 | 333 | 0.0 | 1.6 | 0.00 | 0.25 | 0.00 | 100 | 1016.8 |
| 20260906095907 | 21 | 336 | 0.0 | 1.6 | 0.00 | 0.25 | 0.00 | 100 | 1016.7 |
| 20260906095809 | 21 | 336 | 0.0 | 1.6 | 0.00 | 0.25 | 0.00 | 100 | 1016.8 |
| 20260906095728 | 21 | 336 | 0.0 | 1.6 | 0.00 | 0.25 | 0.00 | 100 | 1016.7 |
| 20260906095608 | 21 | 329 | 0.0 | 1.6 | 0.00 | 0.25 | 0.00 | 100 | 1016.8 |
| 20260906095509 | 21 | 329 | 0.0 | 1.6 | 0.00 | 0.25 | 0.00 | 100 | 1016.7 |
| 20260906095408 | 21 | 329 | 0.0 | 1.6 | 0.00 | 0.25 | 0.00 | 100 | 1016.7 |
| 20260906095308 | 21 | 329 | 0.0 | 0.0 | 0.00 | 0.25 | 0.00 | 100 | 1016.7 |
| 20260906095210 | 21 | 329 | 0.0 | 0.0 | 0.00 | 0.25 | 0.00 | 100 | 1016.8 |
| 20260906095109 | 21 | 323 | 0.0 | 0.0 | 0.00 | 0.25 | 0.00 | 100 | 1016.7 |
| 20260906095011 | 21 | 323 | 0.0 | 0.0 | 0.00 | 0.25 | 0.00 | 100 | 1016.8 |
| 20260906094908 | 21 | 323 | 0.0 | 0.0 | 0.00 | 0.25 | 0.00 | 100 | 1016.8 |
| 20260906094810 | 21 | 323 | 0.0 | 0.0 | 0.00 | 0.25 | 0.00 | 100 | 1016.8 |
| 20260906094728 | 21 | 323 | 0.0 | 0.0 | 0.00 | 0.25 | 0.00 | 100 | 1016.8 |
| 20260906094610 | 21 | 323 | 0.0 | 0.0 | 0.00 | 0.25 | 0.00 | 100 | 1016.9 |
| 20260906094508 | 21 | 323 | 0.0 | 0.0 | 0.00 | 0.25 | 0.00 | 100 | 1016.8 |
| 20260906094406 | 21 | 323 | 0.0 | 0.0 | 0.00 | 0.25 | 0.00 | 100 | 1016.9 |
| 20260906094308 | 21 | 323 | 0.0 | 0.0 | 0.00 | 0.25 | 0.00 | 100 | 1016.8 |
| 20260906094204 | 21 | 323 | 0.0 | 1.6 | 0.00 | 0.25 | 0.00 | 100 | 1016.9 |
| 20260906094104 | 21 | 323 | 0.0 | 1.6 | 0.00 | 0.25 | 0.00 | 100 | 1016.9 |
| 20260906093902 | 21 | 323 | 0.0 | 1.6 | 0.00 | 0.25 | 0.00 | 100 | 1016.9 |
| 20260906093802 | 21 | 322 | 0.0 | 1.6 | 0.00 | 0.25 | 0.00 | 100 | 1017.0 |
| 20260906093702 | 21 | 323 | 0.0 | 3.2 | 0.00 | 0.25 | 0.00 | 100 | 1017.0 |
| 20260906093601 | 21 | 323 | 0.0 | 3.2 | 0.00 | 0.25 | 0.00 | 100 | 1016.9 |
| 20260906093501 | 21 | 323 | 0.0 | 3.2 | 0.00 | 0.25 | 0.00 | 100 | 1016.9 |
| 20260906093359 | 21 | 323 | 0.0 | 3.2 | 0.00 | 0.25 | 0.00 | 100 | 1016.9 |
| 20260906093259 | 21 | 322 | 0.0 | 3.2 | 0.00 | 0.25 | 0.00 | 100 | 1016.8 |
| 20260906093159 | 21 | 329 | 0.0 | 3.2 | 0.00 | 0.25 | 0.00 | 100 | 1016.8 |
| 20260906093056 | 21 | 328 | 0.0 | 3.2 | 0.00 | 0.25 | 0.00 | 100 | 1016.8 |
| 20260906092957 | 21 | 328 | 0.0 | 3.2 | 0.00 | 0.25 | 0.00 | 100 | 1016.8 |
| 20260906092857 | 21 | 328 | 0.0 | 3.2 | 0.00 | 0.25 | 0.00 | 100 | 1016.8 |
| 20260906092756 | 21 | 4 | 0.0 | 3.2 | 0.00 | 0.25 | 0.00 | 100 | 1016.7 |
| 20260906092656 | 21 | 28 | 0.0 | 1.6 | 0.00 | 0.25 | 0.00 | 100 | 1016.7 |
| 20260906092557 | 21 | 60 | 0.0 | 1.6 | 0.00 | 0.25 | 0.00 | 100 | 1016.7 |
| 20260906092457 | 21 | 60 | 0.0 | 1.6 | 0.00 | 0.25 | 0.00 | 100 | 1016.7 |
| 20260906092356 | 21 | 60 | 0.0 | 1.6 | 0.00 | 0.25 | 0.00 | 100 | 1016.8 |
| 20260906092255 | 21 | 60 | 0.0 | 1.6 | 0.00 | 0.25 | 0.00 | 100 | 1016.7 |
| 20260906092153 | 21 | 60 | 0.0 | 1.6 | 0.00 | 0.25 | 0.00 | 100 | 1016.7 |
| 20260906092050 | 21 | 60 | 0.0 | 1.6 | 0.00 | 0.25 | 0.00 | 100 | 1016.7 |
| 20260906091952 | 21 | 60 | 0.0 | 1.6 | 0.00 | 0.25 | 0.00 | 100 | 1016.7 |
| 20260906091848 | 21 | 60 | 0.0 | 0.0 | 0.00 | 0.25 | 0.00 | 100 | 1016.8 |
| 20260906091750 | 21 | 60 | 0.0 | 0.0 | 0.00 | 0.25 | 0.00 | 100 | 1016.6 |
| 20260906091647 | 21 | 60 | 0.0 | 0.0 | 0.00 | 0.25 | 0.00 | 100 | 1016.6 |
| 20260906091545 | 21 | 60 | 0.0 | 0.0 | 0.00 | 0.25 | 0.00 | 100 | 1016.7 |
| 20260906091446 | 21 | 60 | 0.0 | 0.0 | 0.00 | 0.25 | 0.00 | 100 | 1016.7 |
| 20260906091343 | 21 | 60 | 0.0 | 1.6 | 0.00 | 0.25 | 0.00 | 100 | 1016.7 |
| 20260906091243 | 21 | 60 | 0.0 | 1.6 | 0.00 | 0.25 | 0.00 | 100 | 1016.6 |
| 20260906091140 | 21 | 60 | 0.0 | 1.6 | 0.00 | 0.25 | 0.00 | 100 | 1016.6 |
| 20260906091038 | 21 | 60 | 0.0 | 1.6 | 0.00 | 0.25 | 0.00 | 100 | 1016.7 |
| 20260906090940 | 21 | 60 | 0.0 | 1.6 | 0.00 | 0.25 | 0.00 | 100 | 1016.5 |
| 20260906090837 | 21 | 60 | 0.0 | 1.6 | 0.00 | 0.25 | 0.00 | 100 | 1016.6 |
| 20260906090738 | 21 | 60 | 0.0 | 1.6 | 0.00 | 0.25 | 0.00 | 100 | 1016.5 |
| 20260906090635 | 21 | 60 | 0.0 | 1.6 | 0.00 | 0.25 | 0.00 | 100 | 1016.6 |
| 20260906090532 | 21 | 60 | 0.0 | 1.6 | 0.00 | 0.25 | 0.00 | 100 | 1016.5 |
| 20260906090433 | 21 | 60 | 0.0 | 1.6 | 0.00 | 0.25 | 0.00 | 100 | 1016.5 |
| 20260906090330 | 21 | 60 | 0.0 | 1.6 | 0.00 | 0.25 | 0.00 | 100 | 1016.5 |
| 20260906090231 | 21 | 60 | 0.0 | 1.6 | 0.00 | 0.25 | 0.00 | 100 | 1016.6 |
| 20260906090129 | 21 | 60 | 0.0 | 1.6 | 0.00 | 0.25 | 0.00 | 100 | 1016.5 |
| 20260906090027 | 21 | 98 | 0.0 | 0.0 | 0.00 | 0.25 | 0.00 | 100 | 1016.5 |
| 20260906085928 | 21 | 98 | 0.0 | 0.0 | 0.00 | 0.25 | 0.00 | 100 | 1016.5 |
| 20260906085825 | 21 | 98 | 0.0 | 0.0 | 0.00 | 0.25 | 0.00 | 100 | 1016.5 |
| 20260906085724 | 21 | 98 | 0.0 | 0.0 | 0.00 | 0.25 | 0.00 | 100 | 1016.4 |
| 20260906085623 | 21 | 98 | 0.0 | 0.0 | 0.00 | 0.25 | 0.00 | 100 | 1016.5 |
| 20260906085520 | 21 | 98 | 0.0 | 0.0 | 0.00 | 0.25 | 0.00 | 100 | 1016.5 |
| 20260906085415 | 21 | 98 | 0.0 | 0.0 | 0.00 | 0.25 | 0.00 | 100 | 1016.5 |
| 20260906085315 | 21 | 98 | 0.0 | 0.0 | 0.00 | 0.25 | 0.00 | 100 | 1016.5 |
| 20260906085214 | 21 | 98 | 0.0 | 0.0 | 0.00 | 0.25 | 0.00 | 100 | 1016.5 |
| 20260906085114 | 21 | 98 | 0.0 | 0.0 | 0.00 | 0.25 | 0.00 | 100 | 1016.5 |
| 20260906085014 | 21 | 98 | 0.0 | 0.0 | 0.00 | 0.25 | 0.00 | 100 | 1016.4 |
| 20260906084909 | 21 | 98 | 0.0 | 0.0 | 0.00 | 0.25 | 0.00 | 100 | 1016.5 |
| 20260906084808 | 21 | 98 | 0.0 | 0.0 | 0.00 | 0.25 | 0.00 | 100 | 1016.4 |
| 20260906084708 | 21 | 98 | 0.0 | 0.0 | 0.00 | 0.25 | 0.00 | 100 | 1016.4 |
| 20260906084608 | 21 | 98 | 0.0 | 0.0 | 0.00 | 0.25 | 0.00 | 100 | 1016.4 |
| 20260906084508 | 21 | 98 | 0.0 | 0.0 | 0.00 | 0.25 | 0.00 | 100 | 1016.4 |
| 20260906084408 | 21 | 98 | 0.0 | 0.0 | 0.00 | 0.25 | 0.00 | 100 | 1016.4 |
| 20260906084306 | 21 | 98 | 0.0 | 0.0 | 0.00 | 0.25 | 0.00 | 100 | 1016.4 |
| 20260906084225 | 21 | 98 | 0.0 | 0.0 | 0.00 | 0.25 | 0.00 | 100 | 1016.3 |
| 20260906084205 | 21 | 98 | 0.0 | 0.0 | 0.00 | 0.25 | 0.00 | 100 | 1016.4 |
| 20260906084004 | 21 | 98 | 0.0 | 0.0 | 0.00 | 0.25 | 0.00 | 100 | 1016.3 |
| 20260906083858 | 21 | 98 | 0.0 | 0.0 | 0.00 | 0.25 | 0.00 | 100 | 1016.2 |
| 20260906083759 | 21 | 98 | 0.0 | 0.0 | 0.00 | 0.25 | 0.00 | 100 | 1016.3 |
| 20260906083659 | 21 | 98 | 0.0 | 0.0 | 0.00 | 0.25 | 0.00 | 100 | 1016.3 |
| 20260906083457 | 20 | 98 | 0.0 | 0.0 | 0.00 | 0.25 | 0.00 | 100 | 1016.3 |
| 20260906083358 | 20 | 98 | 0.0 | 0.0 | 0.00 | 0.25 | 0.00 | 100 | 1016.2 |
| 20260906083254 | 20 | 98 | 0.0 | 0.0 | 0.00 | 0.25 | 0.00 | 100 | 1016.2 |
| 20260906083215 | 20 | 98 | 0.0 | 0.0 | 0.00 | 0.25 | 0.00 | 100 | 1016.2 |
| 20260906083054 | 20 | 98 | 0.0 | 0.0 | 0.00 | 0.25 | 0.00 | 100 | 1016.2 |
| 20260906082950 | 20 | 98 | 0.0 | 0.0 | 0.00 | 0.25 | 0.00 | 100 | 1016.2 |
| 20260906082852 | 20 | 98 | 0.0 | 0.0 | 0.00 | 0.25 | 0.00 | 100 | 1016.3 |
| 20260906082749 | 21 | 98 | 0.0 | 0.0 | 0.00 | 0.25 | 0.00 | 100 | 1016.3 |
| 20260906082650 | 21 | 98 | 0.0 | 0.0 | 0.00 | 0.25 | 0.00 | 100 | 1016.3 |
| 20260906082546 | 21 | 98 | 0.0 | 0.0 | 0.00 | 0.25 | 0.00 | 100 | 1016.3 |
| 20260906082444 | 21 | 98 | 0.0 | 0.0 | 0.00 | 0.25 | 0.00 | 100 | 1016.3 |
| 20260906082345 | 21 | 98 | 0.0 | 0.0 | 0.00 | 0.25 | 0.00 | 100 | 1016.3 |
| 20260906082244 | 21 | 98 | 0.0 | 0.0 | 0.00 | 0.25 | 0.00 | 100 | 1016.2 |
| 20260906082144 | 21 | 98 | 0.0 | 0.0 | 0.00 | 0.25 | 0.00 | 100 | 1016.2 |
| 20260906082046 | 21 | 98 | 0.0 | 0.0 | 0.00 | 0.25 | 0.00 | 100 | 1016.3 |
| 20260906081938 | 21 | 98 | 0.0 | 0.0 | 0.00 | 0.25 | 0.00 | 100 | 1016.2 |
| 20260906081832 | 21 | 98 | 0.0 | 0.0 | 0.00 | 0.25 | 0.00 | 100 | 1016.2 |
| 20260906081733 | 21 | 98 | 0.0 | 0.0 | 0.00 | 0.25 | 0.00 | 100 | 1016.2 |
| 20260906081632 | 21 | 98 | 0.0 | 0.0 | 0.00 | 0.25 | 0.00 | 100 | 1016.1 |
| 20260906081533 | 21 | 98 | 0.0 | 0.0 | 0.00 | 0.25 | 0.00 | 100 | 1016.2 |
| 20260906081436 | 21 | 98 | 0.0 | 0.0 | 0.00 | 0.25 | 0.00 | 99 | 1016.1 |
| 20260906081332 | 21 | 98 | 0.0 | 0.0 | 0.00 | 0.25 | 0.00 | 99 | 1016.1 |
| 20260906081231 | 21 | 98 | 0.0 | 0.0 | 0.00 | 0.25 | 0.00 | 99 | 1016.2 |
| 20260906081130 | 21 | 98 | 0.0 | 0.0 | 0.00 | 0.25 | 0.00 | 99 | 1016.1 |
| 20260906080927 | 21 | 98 | 0.0 | 0.0 | 0.00 | 0.25 | 0.00 | 100 | 1016.1 |
| 20260906080827 | 21 | 98 | 0.0 | 0.0 | 0.00 | 0.25 | 0.00 | 99 | 1016.1 |
| 20260906080723 | 21 | 98 | 0.0 | 0.0 | 0.00 | 0.25 | 0.00 | 100 | 1016.1 |
| 20260906080700 | 21 | 98 | 0.0 | 0.0 | 0.00 | 0.25 | 0.00 | 99 | 1016.2 |
| 20260906080523 | 21 | 98 | 0.0 | 0.0 | 0.00 | 0.25 | 0.00 | 99 | 1016.1 |
| 20260906080420 | 21 | 98 | 0.0 | 0.0 | 0.00 | 0.25 | 0.00 | 99 | 1016.1 |
| 20260906080313 | 21 | 98 | 0.0 | 0.0 | 0.00 | 0.25 | 0.00 | 99 | 1016.1 |
| 20260906080215 | 21 | 98 | 0.0 | 0.0 | 0.00 | 0.25 | 0.00 | 99 | 1016.1 |
| 20260906080201 | 21 | 98 | 0.0 | 0.0 | 0.00 | 0.25 | 0.00 | 99 | 1016.1 |
| 20260906080012 | 21 | 98 | 0.0 | 0.0 | 0.00 | 0.25 | 0.00 | 99 | 1016.1 |
| 20260906075913 | 21 | 98 | 0.0 | 0.0 | 0.00 | 0.25 | 0.00 | 99 | 1016.1 |
| 20260906075809 | 21 | 98 | 0.0 | 0.0 | 0.00 | 0.25 | 0.00 | 99 | 1016.1 |
| 20260906075711 | 21 | 98 | 0.0 | 0.0 | 0.00 | 0.25 | 0.00 | 99 | 1016.1 |
| 20260906075606 | 20 | 98 | 0.0 | 0.0 | 0.00 | 0.25 | 0.00 | 99 | 1016.1 |
| 20260906075507 | 21 | 98 | 0.0 | 0.0 | 0.00 | 0.25 | 0.00 | 99 | 1016.1 |
| 20260906075407 | 20 | 98 | 0.0 | 0.0 | 0.00 | 0.25 | 0.00 | 99 | 1016.1 |
| 20260906075306 | 20 | 98 | 0.0 | 0.0 | 0.00 | 0.25 | 0.00 | 99 | 1016.1 |
| 20260906075207 | 21 | 98 | 0.0 | 0.0 | 0.00 | 0.25 | 0.00 | 99 | 1016.1 |
| 20260906075150 | 21 | 98 | 0.0 | 0.0 | 0.00 | 0.25 | 0.00 | 99 | 1016.0 |
| 20260906075004 | 21 | 98 | 0.0 | 0.0 | 0.00 | 0.25 | 0.00 | 99 | 1016.0 |
| 20260906074900 | 21 | 98 | 0.0 | 0.0 | 0.00 | 0.25 | 0.00 | 99 | 1016.0 |
| 20260906074758 | 21 | 98 | 0.0 | 0.0 | 0.00 | 0.25 | 0.00 | 99 | 1016.0 |
| 20260906074658 | 21 | 98 | 0.0 | 0.0 | 0.00 | 0.25 | 0.00 | 99 | 1016.0 |
| 20260906074600 | 21 | 98 | 0.0 | 0.0 | 0.00 | 0.25 | 0.00 | 99 | 1016.1 |
| 20260906074458 | 21 | 98 | 0.0 | 0.0 | 0.00 | 0.25 | 0.00 | 99 | 1016.0 |
| 20260906074355 | 21 | 98 | 0.0 | 0.0 | 0.00 | 0.25 | 0.00 | 99 | 1016.1 |
| 20260906074254 | 21 | 98 | 0.0 | 0.0 | 0.00 | 0.25 | 0.00 | 99 | 1016.1 |
| 20260906074154 | 21 | 98 | 0.0 | 0.0 | 0.00 | 0.25 | 0.00 | 99 | 1016.0 |
| 20260906074138 | 21 | 98 | 0.0 | 0.0 | 0.00 | 0.25 | 0.00 | 99 | 1016.1 |
| 20260906073950 | 21 | 98 | 0.0 | 0.0 | 0.00 | 0.25 | 0.00 | 99 | 1016.0 |
| 20260906073849 | 21 | 98 | 0.0 | 0.0 | 0.00 | 0.25 | 0.00 | 99 | 1016.0 |
| 20260906073749 | 21 | 98 | 0.0 | 0.0 | 0.00 | 0.25 | 0.00 | 99 | 1016.1 |
| 20260906073646 | 21 | 98 | 0.0 | 0.0 | 0.00 | 0.25 | 0.00 | 99 | 1016.0 |
| 20260906073546 | 21 | 98 | 0.0 | 0.0 | 0.00 | 0.25 | 0.00 | 99 | 1016.0 |
| 20260906073445 | 21 | 98 | 0.0 | 0.0 | 0.00 | 0.25 | 0.00 | 99 | 1016.0 |
| 20260906073343 | 21 | 98 | 0.0 | 0.0 | 0.00 | 0.25 | 0.00 | 99 | 1016.1 |
| 20260906073241 | 21 | 98 | 0.0 | 0.0 | 0.00 | 0.25 | 0.00 | 99 | 1016.0 |
| 20260906073140 | 21 | 98 | 0.0 | 0.0 | 0.00 | 0.28 | 0.00 | 99 | 1016.0 |
| 20260906073041 | 21 | 98 | 0.0 | 0.0 | 0.00 | 0.28 | 0.00 | 99 | 1016.1 |
| 20260906072937 | 21 | 98 | 0.0 | 0.0 | 0.00 | 0.28 | 0.00 | 99 | 1016.1 |
| 20260906072837 | 21 | 98 | 0.0 | 0.0 | 0.00 | 0.28 | 0.00 | 99 | 1016.1 |
| 20260906072737 | 21 | 98 | 0.0 | 0.0 | 0.00 | 0.28 | 0.00 | 99 | 1016.1 |
| 20260906072635 | 21 | 98 | 0.0 | 0.0 | 0.00 | 0.28 | 0.00 | 99 | 1016.1 |
| 20260906072534 | 21 | 98 | 0.0 | 0.0 | 0.00 | 0.28 | 0.00 | 99 | 1016.2 |
| 20260906072434 | 21 | 98 | 0.0 | 0.0 | 0.00 | 0.28 | 0.00 | 99 | 1016.2 |
| 20260906072331 | 21 | 98 | 0.0 | 0.0 | 0.00 | 0.28 | 0.00 | 99 | 1016.1 |
| 20260906072229 | 21 | 98 | 0.0 | 0.0 | 0.00 | 0.28 | 0.00 | 99 | 1016.1 |
| 20260906072130 | 21 | 98 | 0.0 | 0.0 | 0.00 | 0.28 | 0.00 | 99 | 1016.1 |
| 20260906072028 | 21 | 98 | 0.0 | 0.0 | 0.00 | 0.28 | 0.00 | 99 | 1016.1 |
| 20260906071927 | 21 | 98 | 0.0 | 0.0 | 0.00 | 0.28 | 0.00 | 99 | 1016.1 |
| 20260906071825 | 21 | 98 | 0.0 | 0.0 | 0.00 | 0.28 | 0.00 | 99 | 1016.1 |
| 20260906071723 | 21 | 98 | 0.0 | 0.0 | 0.00 | 0.28 | 0.00 | 99 | 1016.2 |
| 20260906071623 | 21 | 98 | 0.0 | 0.0 | 0.00 | 0.28 | 0.00 | 99 | 1016.2 |
| 20260906071523 | 21 | 98 | 0.0 | 0.0 | 0.00 | 0.28 | 0.00 | 99 | 1016.2 |
| 20260906071419 | 21 | 98 | 0.0 | 0.0 | 0.00 | 0.28 | 0.00 | 99 | 1016.2 |
| 20260906071319 | 21 | 98 | 0.0 | 0.0 | 0.00 | 0.28 | 0.00 | 99 | 1016.2 |
| 20260906071211 | 21 | 98 | 0.0 | 0.0 | 0.00 | 0.28 | 0.00 | 99 | 1016.2 |
| 20260906071112 | 21 | 98 | 0.0 | 0.0 | 0.00 | 0.28 | 0.00 | 99 | 1016.2 |
| 20260906071012 | 21 | 98 | 0.0 | 0.0 | 0.00 | 0.28 | 0.00 | 99 | 1016.2 |
| 20260906070912 | 21 | 98 | 0.0 | 0.0 | 0.00 | 0.28 | 0.00 | 98 | 1016.1 |
| 20260906070813 | 21 | 98 | 0.0 | 0.0 | 0.00 | 0.28 | 0.00 | 98 | 1016.2 |
| 20260906070708 | 21 | 98 | 0.0 | 0.0 | 0.00 | 0.28 | 0.00 | 98 | 1016.2 |
| 20260906070606 | 21 | 98 | 0.0 | 0.0 | 0.00 | 0.28 | 0.00 | 98 | 1016.2 |
| 20260906070507 | 21 | 98 | 0.0 | 0.0 | 0.00 | 0.28 | 0.00 | 98 | 1016.3 |
| 20260906070406 | 21 | 98 | 0.0 | 0.0 | 0.00 | 0.28 | 0.00 | 98 | 1016.3 |
| 20260906070307 | 21 | 98 | 0.0 | 0.0 | 0.00 | 0.28 | 0.00 | 98 | 1016.3 |
| 20260906070205 | 21 | 98 | 0.0 | 0.0 | 0.00 | 0.28 | 0.00 | 98 | 1016.3 |
| 20260906070104 | 21 | 98 | 0.0 | 0.0 | 0.00 | 0.28 | 0.00 | 98 | 1016.4 |
| 20260906070005 | 21 | 98 | 0.0 | 0.0 | 0.00 | 0.28 | 0.00 | 98 | 1016.2 |
| 20260906065902 | 21 | 98 | 0.0 | 0.0 | 0.00 | 0.28 | 0.00 | 98 | 1016.3 |
| 20260906065800 | 21 | 98 | 0.0 | 0.0 | 0.00 | 0.28 | 0.00 | 98 | 1016.3 |
| 20260906065657 | 21 | 98 | 0.0 | 0.0 | 0.00 | 0.28 | 0.00 | 98 | 1016.3 |
| 20260906065554 | 21 | 98 | 0.0 | 0.0 | 0.00 | 0.28 | 0.00 | 98 | 1016.4 |
| 20260906065353 | 21 | 98 | 0.0 | 0.0 | 0.00 | 0.28 | 0.00 | 98 | 1016.4 |
| 20260906065255 | 21 | 98 | 0.0 | 0.0 | 0.00 | 0.28 | 0.00 | 98 | 1016.4 |
| 20260906065152 | 21 | 98 | 0.0 | 1.6 | 0.00 | 0.28 | 0.00 | 98 | 1016.4 |
| 20260906065055 | 21 | 98 | 0.0 | 1.6 | 0.00 | 0.28 | 0.00 | 98 | 1016.4 |
| 20260906065040 | 21 | 98 | 0.0 | 1.6 | 0.00 | 0.28 | 0.00 | 98 | 1016.4 |
| 20260906064849 | 21 | 98 | 0.0 | 1.6 | 0.00 | 0.28 | 0.00 | 98 | 1016.4 |
| 20260906064749 | 21 | 98 | 0.0 | 1.6 | 0.00 | 0.28 | 0.00 | 98 | 1016.4 |
| 20260906064644 | 21 | 98 | 0.0 | 1.6 | 0.00 | 0.28 | 0.00 | 98 | 1016.3 |
| 20260906064542 | 21 | 98 | 0.0 | 1.6 | 0.00 | 0.28 | 0.00 | 98 | 1016.3 |
| 20260906064342 | 21 | 98 | 0.0 | 1.6 | 0.00 | 0.28 | 0.00 | 98 | 1016.4 |
| 20260906064243 | 21 | 98 | 0.0 | 1.6 | 0.00 | 0.28 | 0.00 | 98 | 1016.4 |
| 20260906064138 | 21 | 99 | 0.0 | 0.0 | 0.00 | 0.28 | 0.00 | 98 | 1016.4 |
| 20260906064037 | 21 | 98 | 0.0 | 0.0 | 0.00 | 0.28 | 0.00 | 98 | 1016.4 |
| 20260906063835 | 21 | 98 | 0.0 | 0.0 | 0.00 | 0.28 | 0.00 | 98 | 1016.4 |
| 20260906063737 | 21 | 98 | 0.0 | 0.0 | 0.00 | 0.28 | 0.00 | 98 | 1016.5 |
| 20260906063630 | 21 | 98 | 0.0 | 0.0 | 0.00 | 0.28 | 0.00 | 98 | 1016.5 |
| 20260906063539 | 21 | 99 | 0.0 | 0.0 | 0.00 | 0.28 | 0.00 | 98 | 1016.5 |
| 20260906063522 | 21 | 98 | 0.0 | 0.0 | 0.00 | 0.28 | 0.00 | 98 | 1016.5 |
| 20260906063330 | 21 | 98 | 0.0 | 0.0 | 0.00 | 0.28 | 0.00 | 98 | 1016.6 |
| 20260906063247 | 21 | 99 | 0.0 | 0.0 | 0.00 | 0.28 | 0.00 | 98 | 1016.4 |
| 20260906063230 | 21 | 99 | 0.0 | 0.0 | 0.00 | 0.28 | 0.00 | 98 | 1016.6 |
| 20260906063039 | 21 | 98 | 0.0 | 0.0 | 0.00 | 0.28 | 0.00 | 98 | 1016.5 |
| 20260906063017 | 21 | 99 | 0.0 | 0.0 | 0.00 | 0.28 | 0.00 | 98 | 1016.5 |
| 20260906062826 | 21 | 99 | 0.0 | 0.0 | 0.00 | 0.28 | 0.00 | 98 | 1016.6 |
| 20260906062724 | 21 | 99 | 0.0 | 0.0 | 0.00 | 0.28 | 0.00 | 98 | 1016.6 |
| 20260906062623 | 21 | 99 | 0.0 | 0.0 | 0.00 | 0.28 | 0.00 | 98 | 1016.6 |
| 20260906062523 | 21 | 99 | 0.0 | 0.0 | 0.00 | 0.28 | 0.00 | 98 | 1016.6 |
| 20260906062421 | 21 | 99 | 0.0 | 0.0 | 0.00 | 0.28 | 0.00 | 98 | 1016.5 |
| 20260906062321 | 21 | 99 | 0.0 | 0.0 | 0.00 | 0.28 | 0.00 | 98 | 1016.5 |
| 20260906062219 | 21 | 99 | 0.0 | 0.0 | 0.00 | 0.28 | 0.00 | 98 | 1016.4 |
| 20260906062112 | 21 | 99 | 0.0 | 0.0 | 0.00 | 0.28 | 0.00 | 98 | 1016.3 |
| 20260906062012 | 21 | 99 | 0.0 | 0.0 | 0.00 | 0.28 | 0.00 | 98 | 1016.4 |
| 20260906061913 | 21 | 99 | 0.0 | 0.0 | 0.00 | 0.28 | 0.00 | 98 | 1016.3 |
| 20260906061812 | 21 | 99 | 0.0 | 0.0 | 0.00 | 0.28 | 0.00 | 98 | 1016.4 |
| 20260906061729 | 21 | 99 | 0.0 | 0.0 | 0.00 | 0.28 | 0.00 | 98 | 1016.4 |
| 20260906061714 | 21 | 99 | 0.0 | 0.0 | 0.00 | 0.28 | 0.00 | 98 | 1016.4 |
| 20260906061513 | 21 | 99 | 0.0 | 0.0 | 0.00 | 0.28 | 0.00 | 98 | 1016.4 |
| 20260906061457 | 21 | 99 | 0.0 | 0.0 | 0.00 | 0.28 | 0.00 | 98 | 1016.4 |
| 20260906061308 | 21 | 99 | 0.0 | 0.0 | 0.00 | 0.28 | 0.00 | 98 | 1016.3 |
| 20260906061207 | 21 | 99 | 0.0 | 0.0 | 0.00 | 0.28 | 0.00 | 97 | 1016.4 |
| 20260906061103 | 21 | 99 | 0.0 | 0.0 | 0.00 | 0.28 | 0.00 | 97 | 1016.4 |
| 20260906061003 | 21 | 99 | 0.0 | 0.0 | 0.00 | 0.28 | 0.00 | 97 | 1016.4 |
| 20260906060903 | 21 | 98 | 0.0 | 0.0 | 0.00 | 0.28 | 0.00 | 97 | 1016.4 |
| 20260906060801 | 21 | 99 | 0.0 | 0.0 | 0.00 | 0.28 | 0.00 | 97 | 1016.4 |
| 20260906060701 | 21 | 99 | 0.0 | 0.0 | 0.00 | 0.28 | 0.00 | 97 | 1016.3 |
| 20260906060601 | 21 | 99 | 0.0 | 0.0 | 0.00 | 0.28 | 0.00 | 97 | 1016.3 |
| 20260906060459 | 21 | 99 | 0.0 | 0.0 | 0.00 | 0.28 | 0.00 | 97 | 1016.4 |
| 20260906060358 | 21 | 99 | 0.0 | 0.0 | 0.00 | 0.28 | 0.00 | 97 | 1016.4 |
| 20260906060257 | 21 | 99 | 0.0 | 0.0 | 0.00 | 0.28 | 0.00 | 97 | 1016.4 |
| 20260906060155 | 21 | 99 | 0.0 | 0.0 | 0.00 | 0.28 | 0.00 | 97 | 1016.4 |
| 20260906060052 | 21 | 99 | 0.0 | 0.0 | 0.00 | 0.28 | 0.00 | 97 | 1016.3 |
| 20260906055952 | 21 | 99 | 0.0 | 0.0 | 0.00 | 0.28 | 0.00 | 97 | 1016.3 |
| 20260906055853 | 21 | 99 | 0.0 | 0.0 | 0.00 | 0.30 | 0.00 | 97 | 1016.3 |
| 20260906055751 | 21 | 99 | 0.0 | 0.0 | 0.00 | 0.30 | 0.00 | 97 | 1016.3 |
| 20260906055648 | 21 | 99 | 0.0 | 0.0 | 0.00 | 0.30 | 0.00 | 97 | 1016.3 |
| 20260906055548 | 21 | 99 | 0.0 | 0.0 | 0.00 | 0.30 | 0.00 | 97 | 1016.4 |
| 20260906055448 | 21 | 99 | 0.0 | 0.0 | 0.00 | 0.30 | 0.00 | 97 | 1016.2 |
| 20260906055347 | 21 | 99 | 0.0 | 0.0 | 0.00 | 0.30 | 0.00 | 97 | 1016.3 |
| 20260906055245 | 21 | 99 | 0.0 | 0.0 | 0.00 | 0.30 | 0.00 | 97 | 1016.4 |
| 20260906055143 | 21 | 99 | 0.0 | 0.0 | 0.00 | 0.30 | 0.00 | 97 | 1016.3 |
| 20260906055042 | 21 | 99 | 0.0 | 0.0 | 0.00 | 0.30 | 0.00 | 97 | 1016.3 |
| 20260906054940 | 21 | 99 | 0.0 | 0.0 | 0.00 | 0.30 | 0.00 | 97 | 1016.4 |
| 20260906054839 | 21 | 99 | 0.0 | 0.0 | 0.00 | 0.30 | 0.00 | 97 | 1016.4 |
| 20260906054739 | 21 | 99 | 0.0 | 0.0 | 0.00 | 0.30 | 0.00 | 96 | 1016.4 |
| 20260906054637 | 21 | 99 | 0.0 | 0.0 | 0.00 | 0.30 | 0.00 | 96 | 1016.4 |
| 20260906054534 | 21 | 99 | 0.0 | 0.0 | 0.00 | 0.30 | 0.00 | 96 | 1016.5 |
| 20260906054434 | 21 | 99 | 0.0 | 0.0 | 0.00 | 0.30 | 0.00 | 96 | 1016.4 |
| 20260906054334 | 21 | 99 | 0.0 | 0.0 | 0.00 | 0.30 | 0.00 | 96 | 1016.5 |
| 20260906054232 | 21 | 99 | 0.0 | 0.0 | 0.00 | 0.30 | 0.00 | 96 | 1016.4 |
| 20260906054130 | 21 | 99 | 0.0 | 0.0 | 0.00 | 0.30 | 0.00 | 96 | 1016.5 |
| 20260906054029 | 21 | 99 | 0.0 | 0.0 | 0.00 | 0.30 | 0.00 | 96 | 1016.5 |
| 20260906053929 | 21 | 99 | 0.0 | 0.0 | 0.00 | 0.30 | 0.00 | 96 | 1016.5 |
| 20260906053833 | 21 | 99 | 0.0 | 0.0 | 0.00 | 0.30 | 0.00 | 96 | 1016.4 |
| 20260906053727 | 21 | 99 | 0.0 | 0.0 | 0.00 | 0.30 | 0.00 | 96 | 1016.5 |
| 20260906053625 | 21 | 99 | 0.0 | 0.0 | 0.00 | 0.30 | 0.00 | 96 | 1016.5 |
| 20260906053523 | 21 | 99 | 0.0 | 0.0 | 0.00 | 0.30 | 0.00 | 96 | 1016.4 |
| 20260906053421 | 21 | 98 | 0.0 | 0.0 | 0.00 | 0.30 | 0.00 | 96 | 1016.4 |
| 20260906053322 | 21 | 99 | 0.0 | 0.0 | 0.00 | 0.30 | 0.00 | 96 | 1016.5 |
| 20260906053221 | 21 | 99 | 0.0 | 0.0 | 0.00 | 0.30 | 0.00 | 96 | 1016.5 |
| 20260906053118 | 21 | 99 | 0.0 | 0.0 | 0.00 | 0.30 | 0.00 | 96 | 1016.5 |
| 20260906053013 | 21 | 99 | 0.0 | 0.0 | 0.00 | 0.30 | 0.00 | 96 | 1016.4 |
| 20260906052913 | 21 | 99 | 0.0 | 0.0 | 0.00 | 0.30 | 0.00 | 96 | 1016.5 |
| 20260906052812 | 21 | 99 | 0.0 | 0.0 | 0.00 | 0.30 | 0.00 | 96 | 1016.5 |
| 20260906052712 | 21 | 99 | 0.0 | 0.0 | 0.00 | 0.30 | 0.00 | 96 | 1016.5 |
| 20260906052612 | 21 | 99 | 0.0 | 0.0 | 0.00 | 0.30 | 0.00 | 95 | 1016.6 |
| 20260906052513 | 21 | 99 | 0.0 | 0.0 | 0.00 | 0.30 | 0.00 | 95 | 1016.6 |
| 20260906052410 | 21 | 99 | 0.0 | 0.0 | 0.00 | 0.30 | 0.00 | 95 | 1016.7 |
| 20260906052311 | 21 | 99 | 0.0 | 0.0 | 0.00 | 0.30 | 0.00 | 95 | 1016.6 |
| 20260906052209 | 21 | 99 | 0.0 | 0.0 | 0.00 | 0.30 | 0.00 | 95 | 1016.6 |
| 20260906052106 | 21 | 99 | 0.0 | 0.0 | 0.00 | 0.30 | 0.00 | 95 | 1016.6 |
| 20260906052004 | 21 | 99 | 0.0 | 0.0 | 0.00 | 0.30 | 0.00 | 95 | 1016.6 |
| 20260906051905 | 21 | 99 | 0.0 | 0.0 | 0.00 | 0.30 | 0.00 | 95 | 1016.6 |
| 20260906051804 | 21 | 99 | 0.0 | 0.0 | 0.00 | 0.30 | 0.00 | 95 | 1016.6 |
| 20260906051704 | 21 | 99 | 0.0 | 0.0 | 0.00 | 0.30 | 0.00 | 95 | 1016.6 |
| 20260906051601 | 21 | 99 | 0.0 | 0.0 | 0.00 | 0.30 | 0.00 | 95 | 1016.7 |
| 20260906051458 | 21 | 99 | 0.0 | 0.0 | 0.00 | 0.30 | 0.00 | 95 | 1016.7 |
| 20260906051357 | 21 | 99 | 0.0 | 0.0 | 0.00 | 0.30 | 0.00 | 95 | 1016.6 |
| 20260906051258 | 21 | 99 | 0.0 | 0.0 | 0.00 | 0.30 | 0.00 | 95 | 1016.7 |
| 20260906051157 | 21 | 99 | 0.0 | 0.0 | 0.00 | 0.30 | 0.00 | 95 | 1016.7 |
| 20260906051055 | 22 | 99 | 0.0 | 0.0 | 0.00 | 0.30 | 0.00 | 95 | 1016.6 |
| 20260906050950 | 22 | 99 | 0.0 | 0.0 | 0.00 | 0.30 | 0.00 | 95 | 1016.6 |
| 20260906050848 | 22 | 99 | 0.0 | 0.0 | 0.00 | 0.30 | 0.00 | 95 | 1016.6 |
| 20260906050648 | 22 | 99 | 0.0 | 0.0 | 0.00 | 0.30 | 0.00 | 95 | 1016.6 |
| 20260906050549 | 22 | 99 | 0.0 | 0.0 | 0.00 | 0.30 | 0.00 | 94 | 1016.6 |
| 20260906050448 | 22 | 99 | 0.0 | 0.0 | 0.00 | 0.30 | 0.00 | 94 | 1016.5 |
| 20260906050348 | 22 | 99 | 0.0 | 0.0 | 0.00 | 0.30 | 0.00 | 94 | 1016.6 |
| 20260906050251 | 22 | 99 | 0.0 | 0.0 | 0.00 | 0.30 | 0.00 | 94 | 1016.5 |
| 20260906050145 | 22 | 99 | 0.0 | 0.0 | 0.00 | 0.30 | 0.00 | 94 | 1016.6 |
| 20260906050049 | 22 | 99 | 0.0 | 0.0 | 0.00 | 0.30 | 0.00 | 94 | 1016.6 |
| 20260906045941 | 22 | 98 | 0.0 | 0.0 | 0.00 | 0.30 | 0.00 | 94 | 1016.6 |
| 20260906045839 | 22 | 98 | 0.0 | 0.0 | 0.00 | 0.30 | 0.00 | 94 | 1016.6 |
| 20260906045741 | 22 | 98 | 0.0 | 0.0 | 0.00 | 0.30 | 0.00 | 94 | 1016.7 |
| 20260906045638 | 22 | 98 | 0.0 | 0.0 | 0.00 | 0.30 | 0.00 | 94 | 1016.7 |
| 20260906045537 | 22 | 98 | 0.0 | 0.0 | 0.00 | 0.30 | 0.00 | 94 | 1016.7 |
| 20260906045437 | 22 | 98 | 0.0 | 0.0 | 0.00 | 0.30 | 0.00 | 94 | 1016.7 |
| 20260906045335 | 22 | 98 | 0.0 | 0.0 | 0.00 | 0.30 | 0.00 | 94 | 1016.7 |
| 20260906045235 | 22 | 98 | 0.0 | 0.0 | 0.00 | 0.30 | 0.00 | 94 | 1016.8 |
| 20260906045131 | 22 | 98 | 0.0 | 0.0 | 0.00 | 0.30 | 0.00 | 94 | 1016.7 |
| 20260906045031 | 22 | 98 | 0.0 | 0.0 | 0.00 | 0.30 | 0.00 | 94 | 1016.8 |
| 20260906044932 | 22 | 98 | 0.0 | 0.0 | 0.00 | 0.30 | 0.00 | 94 | 1016.8 |
| 20260906044828 | 22 | 98 | 0.0 | 0.0 | 0.00 | 0.30 | 0.00 | 94 | 1016.7 |
| 20260906044726 | 22 | 98 | 0.0 | 0.0 | 0.00 | 0.30 | 0.00 | 94 | 1016.7 |
| 20260906044627 | 22 | 99 | 0.0 | 0.0 | 0.00 | 0.30 | 0.00 | 94 | 1016.8 |
| 20260906044524 | 22 | 99 | 0.0 | 0.0 | 0.00 | 0.30 | 0.00 | 94 | 1016.8 |
| 20260906044423 | 22 | 99 | 0.0 | 0.0 | 0.00 | 0.30 | 0.00 | 94 | 1016.8 |
| 20260906044325 | 22 | 99 | 0.0 | 0.0 | 0.00 | 0.30 | 0.00 | 94 | 1016.9 |
| 20260906044309 | 22 | 98 | 0.0 | 0.0 | 0.00 | 0.30 | 0.00 | 94 | 1016.9 |
| 20260906044121 | 22 | 98 | 0.0 | 0.0 | 0.00 | 0.30 | 0.00 | 94 | 1016.9 |
| 20260906044018 | 22 | 99 | 0.0 | 0.0 | 0.00 | 0.30 | 0.00 | 94 | 1016.9 |
| 20260906043913 | 22 | 98 | 0.0 | 0.0 | 0.00 | 0.30 | 0.00 | 94 | 1016.9 |
| 20260906043813 | 22 | 99 | 0.0 | 0.0 | 0.00 | 0.30 | 0.00 | 94 | 1016.9 |
| 20260906043712 | 22 | 98 | 0.0 | 0.0 | 0.00 | 0.30 | 0.00 | 94 | 1016.9 |
| 20260906043611 | 22 | 99 | 0.0 | 0.0 | 0.00 | 0.30 | 0.00 | 94 | 1016.8 |
| 20260906043512 | 22 | 99 | 0.0 | 0.0 | 0.00 | 0.30 | 0.00 | 94 | 1016.8 |
| 20260906043407 | 22 | 98 | 0.0 | 0.0 | 0.00 | 0.30 | 0.00 | 94 | 1016.8 |
| 20260906043314 | 22 | 99 | 0.0 | 0.0 | 0.00 | 0.30 | 0.00 | 94 | 1016.9 |
| 20260906043257 | 22 | 99 | 0.0 | 0.0 | 0.00 | 0.30 | 0.00 | 94 | 1016.8 |
| 20260906043105 | 22 | 99 | 0.0 | 0.0 | 0.00 | 0.30 | 0.00 | 94 | 1016.8 |
| 20260906043007 | 22 | 99 | 0.0 | 0.0 | 0.00 | 0.30 | 0.00 | 94 | 1016.8 |
| 20260906042902 | 22 | 99 | 0.0 | 0.0 | 0.00 | 0.30 | 0.00 | 94 | 1016.8 |
| 20260906042809 | 22 | 98 | 0.0 | 0.0 | 0.00 | 0.30 | 0.00 | 94 | 1016.7 |
| 20260906042751 | 22 | 98 | 0.0 | 0.0 | 0.00 | 0.30 | 0.00 | 94 | 1016.8 |
| 20260906042603 | 22 | 98 | 0.0 | 0.0 | 0.00 | 0.30 | 0.00 | 94 | 1016.8 |
| 20260906042501 | 22 | 98 | 0.0 | 0.0 | 0.00 | 0.30 | 0.00 | 94 | 1016.9 |
| 20260906042401 | 22 | 98 | 0.0 | 0.0 | 0.00 | 0.30 | 0.00 | 94 | 1016.9 |
| 20260906042258 | 22 | 98 | 0.0 | 0.0 | 0.00 | 0.30 | 0.00 | 94 | 1016.9 |
| 20260906042158 | 22 | 98 | 0.0 | 0.0 | 0.00 | 0.30 | 0.00 | 94 | 1017.0 |
| 20260906042057 | 22 | 98 | 0.0 | 0.0 | 0.00 | 0.30 | 0.00 | 94 | 1017.0 |
| 20260906041955 | 22 | 98 | 0.0 | 0.0 | 0.00 | 0.30 | 0.00 | 94 | 1017.0 |
| 20260906041853 | 22 | 98 | 0.0 | 0.0 | 0.00 | 0.30 | 0.00 | 94 | 1017.2 |
| 20260906041752 | 22 | 98 | 0.0 | 0.0 | 0.00 | 0.30 | 0.00 | 94 | 1017.2 |
| 20260906041652 | 22 | 98 | 0.0 | 0.0 | 0.00 | 0.30 | 0.00 | 94 | 1017.2 |
| 20260906041551 | 22 | 98 | 0.0 | 0.0 | 0.00 | 0.30 | 0.00 | 94 | 1017.3 |
| 20260906041449 | 22 | 99 | 0.0 | 0.0 | 0.00 | 0.30 | 0.00 | 94 | 1017.2 |
| 20260906041347 | 22 | 99 | 0.0 | 0.0 | 0.00 | 0.30 | 0.00 | 94 | 1017.3 |
| 20260906041245 | 22 | 99 | 0.0 | 0.0 | 0.00 | 0.30 | 0.00 | 94 | 1017.2 |
| 20260906041146 | 22 | 99 | 0.0 | 0.0 | 0.00 | 0.30 | 0.00 | 94 | 1017.2 |
| 20260906041044 | 22 | 99 | 0.0 | 0.0 | 0.00 | 0.30 | 0.00 | 94 | 1017.2 |
| 20260906040945 | 22 | 99 | 0.0 | 0.0 | 0.00 | 0.30 | 0.00 | 94 | 1017.0 |
| 20260906040843 | 22 | 99 | 0.0 | 0.0 | 0.00 | 0.30 | 0.00 | 94 | 1017.0 |
| 20260906040742 | 22 | 99 | 0.0 | 0.0 | 0.00 | 0.30 | 0.00 | 94 | 1017.0 |
| 20260906040727 | 22 | 99 | 0.0 | 0.0 | 0.00 | 0.30 | 0.00 | 94 | 1017.0 |
| 20260906040538 | 22 | 99 | 0.0 | 0.0 | 0.00 | 0.30 | 0.00 | 94 | 1016.9 |
| 20260906040436 | 22 | 99 | 0.0 | 0.0 | 0.00 | 0.30 | 0.00 | 93 | 1016.9 |
| 20260906040335 | 22 | 99 | 0.0 | 0.0 | 0.00 | 0.30 | 0.00 | 93 | 1016.8 |
| 20260906040235 | 22 | 99 | 0.0 | 0.0 | 0.00 | 0.30 | 0.00 | 93 | 1016.8 |
| 20260906040132 | 22 | 99 | 0.0 | 0.0 | 0.00 | 0.30 | 0.00 | 93 | 1016.8 |
| 20260906040033 | 22 | 99 | 0.0 | 0.0 | 0.00 | 0.30 | 0.00 | 93 | 1016.8 |
| 20260906035929 | 22 | 99 | 0.0 | 0.0 | 0.00 | 0.30 | 0.30 | 93 | 1016.8 |
| 20260906035828 | 22 | 99 | 0.0 | 0.0 | 0.00 | 0.30 | 0.30 | 93 | 1016.9 |
| 20260906035727 | 22 | 99 | 0.0 | 0.0 | 0.00 | 0.30 | 0.30 | 93 | 1016.9 |
| 20260906035627 | 22 | 99 | 0.0 | 0.0 | 0.00 | 0.30 | 0.30 | 93 | 1016.9 |
| 20260906035525 | 22 | 99 | 0.0 | 0.0 | 0.00 | 0.30 | 0.30 | 93 | 1016.8 |
| 20260906035423 | 22 | 99 | 0.0 | 0.0 | 0.00 | 0.30 | 0.30 | 93 | 1016.8 |
| 20260906035317 | 22 | 99 | 0.0 | 0.0 | 0.00 | 0.30 | 0.30 | 93 | 1016.8 |
| 20260906035217 | 22 | 99 | 0.0 | 0.0 | 0.00 | 0.30 | 0.30 | 93 | 1016.8 |
| 20260906035116 | 22 | 99 | 0.0 | 0.0 | 0.00 | 0.30 | 0.30 | 93 | 1016.7 |
| 20260906035017 | 22 | 99 | 0.0 | 0.0 | 0.00 | 0.30 | 0.30 | 93 | 1016.7 |
| 20260906034919 | 22 | 99 | 0.0 | 0.0 | 0.00 | 0.30 | 0.30 | 93 | 1016.7 |
| 20260906034814 | 22 | 99 | 0.0 | 0.0 | 0.00 | 0.30 | 0.30 | 92 | 1016.7 |
| 20260906034711 | 22 | 99 | 0.0 | 0.0 | 0.00 | 0.30 | 0.30 | 92 | 1016.6 |
| 20260906034612 | 23 | 99 | 0.0 | 0.0 | 0.00 | 0.30 | 0.30 | 92 | 1016.8 |
| 20260906034512 | 23 | 99 | 0.0 | 1.6 | 0.00 | 0.30 | 0.30 | 92 | 1016.7 |
| 20260906034412 | 23 | 99 | 0.0 | 1.6 | 0.00 | 0.30 | 0.30 | 92 | 1016.7 |
| 20260906034309 | 23 | 99 | 0.0 | 1.6 | 0.00 | 0.30 | 0.30 | 92 | 1016.8 |
| 20260906034208 | 23 | 99 | 0.0 | 3.2 | 0.00 | 0.30 | 0.30 | 92 | 1016.7 |
| 20260906034110 | 23 | 99 | 0.0 | 3.2 | 0.00 | 0.30 | 0.30 | 93 | 1016.8 |
| 20260906034008 | 23 | 99 | 0.0 | 3.2 | 0.00 | 0.30 | 0.30 | 93 | 1016.7 |
| 20260906033906 | 23 | 99 | 0.0 | 3.2 | 0.00 | 0.30 | 0.30 | 93 | 1016.8 |
| 20260906033806 | 23 | 99 | 0.0 | 3.2 | 0.00 | 0.30 | 0.30 | 93 | 1016.8 |
| 20260906033702 | 22 | 99 | 0.0 | 3.2 | 0.00 | 0.30 | 0.30 | 93 | 1016.8 |
| 20260906033605 | 22 | 99 | 0.0 | 3.2 | 0.00 | 0.30 | 0.30 | 93 | 1016.8 |
| 20260906033501 | 22 | 99 | 0.0 | 3.2 | 0.00 | 0.30 | 0.30 | 93 | 1016.8 |
| 20260906033400 | 22 | 99 | 0.0 | 3.2 | 0.00 | 0.30 | 0.30 | 93 | 1016.8 |
| 20260906033300 | 22 | 99 | 0.0 | 3.2 | 0.00 | 0.30 | 0.30 | 93 | 1016.8 |
| 20260906033157 | 22 | 238 | 0.0 | 1.6 | 0.00 | 0.30 | 0.30 | 93 | 1016.7 |
| 20260906033057 | 22 | 238 | 0.0 | 1.6 | 0.00 | 0.30 | 0.30 | 93 | 1016.8 |
| 20260906032956 | 22 | 238 | 0.0 | 1.6 | 0.00 | 0.30 | 0.30 | 93 | 1016.7 |
| 20260906032854 | 22 | 217 | 0.0 | 0.0 | 0.00 | 0.30 | 0.30 | 93 | 1016.7 |
| 20260906032750 | 22 | 217 | 0.0 | 0.0 | 0.00 | 0.30 | 0.30 | 93 | 1016.7 |
| 20260906032651 | 22 | 217 | 0.0 | 0.0 | 0.00 | 0.30 | 0.30 | 93 | 1016.7 |
| 20260906032552 | 22 | 217 | 0.0 | 0.0 | 0.00 | 0.30 | 0.30 | 93 | 1016.8 |
| 20260906032448 | 22 | 217 | 0.0 | 0.0 | 0.00 | 0.30 | 0.30 | 93 | 1016.8 |
| 20260906032348 | 22 | 217 | 0.0 | 0.0 | 0.00 | 0.30 | 0.30 | 93 | 1016.7 |
| 20260906032247 | 22 | 217 | 0.0 | 0.0 | 0.00 | 0.30 | 0.30 | 93 | 1016.7 |
| 20260906032146 | 22 | 217 | 0.0 | 0.0 | 0.00 | 0.30 | 0.30 | 93 | 1016.7 |
| 20260906032046 | 22 | 217 | 0.0 | 0.0 | 0.00 | 0.30 | 0.30 | 93 | 1016.7 |
| 20260906031945 | 22 | 217 | 0.0 | 0.0 | 0.00 | 0.30 | 0.30 | 93 | 1016.6 |
| 20260906031842 | 22 | 217 | 0.0 | 0.0 | 0.00 | 0.30 | 0.30 | 93 | 1016.7 |
| 20260906031742 | 22 | 217 | 0.0 | 0.0 | 0.00 | 0.30 | 0.30 | 93 | 1016.6 |
| 20260906031638 | 22 | 217 | 0.0 | 0.0 | 0.00 | 0.30 | 0.30 | 93 | 1016.7 |
| 20260906031539 | 22 | 217 | 0.0 | 0.0 | 0.00 | 0.30 | 0.30 | 93 | 1016.7 |
| 20260906031438 | 22 | 217 | 0.0 | 0.0 | 0.00 | 0.30 | 0.30 | 93 | 1016.7 |
| 20260906031336 | 22 | 217 | 0.0 | 0.0 | 0.00 | 0.30 | 0.30 | 93 | 1016.7 |
| 20260906031233 | 22 | 217 | 0.0 | 0.0 | 0.00 | 0.30 | 0.30 | 93 | 1016.8 |
| 20260906031134 | 22 | 217 | 0.0 | 0.0 | 0.00 | 0.30 | 0.30 | 93 | 1016.7 |
| 20260906031032 | 22 | 217 | 0.0 | 0.0 | 0.00 | 0.30 | 0.30 | 93 | 1016.8 |
| 20260906030931 | 22 | 217 | 0.0 | 0.0 | 0.00 | 0.30 | 0.30 | 92 | 1016.7 |
| 20260906030830 | 22 | 217 | 0.0 | 0.0 | 0.00 | 0.30 | 0.30 | 92 | 1016.8 |
| 20260906030730 | 22 | 217 | 0.0 | 0.0 | 0.00 | 0.30 | 0.30 | 92 | 1016.8 |
| 20260906030627 | 22 | 217 | 0.0 | 0.0 | 0.00 | 0.30 | 0.30 | 92 | 1016.9 |
| 20260906030528 | 22 | 217 | 0.0 | 0.0 | 0.00 | 0.30 | 0.30 | 93 | 1016.8 |
| 20260906030426 | 22 | 217 | 0.0 | 0.0 | 0.00 | 0.30 | 0.30 | 93 | 1016.8 |
| 20260906030324 | 22 | 217 | 0.0 | 0.0 | 0.00 | 0.30 | 0.30 | 93 | 1016.8 |
| 20260906030224 | 22 | 217 | 0.0 | 0.0 | 0.00 | 0.30 | 0.30 | 93 | 1016.8 |
| 20260906030121 | 22 | 217 | 0.0 | 0.0 | 0.00 | 0.30 | 0.30 | 93 | 1016.8 |
| 20260906030020 | 22 | 217 | 0.0 | 0.0 | 0.00 | 0.30 | 0.30 | 93 | 1016.8 |
| 20260906025920 | 22 | 217 | 0.0 | 0.0 | 0.00 | 0.30 | 0.30 | 92 | 1016.8 |
| 20260906025818 | 22 | 217 | 0.0 | 0.0 | 0.00 | 0.30 | 0.30 | 92 | 1016.8 |
| 20260906025714 | 22 | 217 | 0.0 | 0.0 | 0.00 | 0.30 | 0.30 | 92 | 1016.8 |
| 20260906025612 | 22 | 217 | 0.0 | 0.0 | 0.00 | 0.30 | 0.30 | 92 | 1016.7 |
| 20260906025511 | 22 | 217 | 0.0 | 0.0 | 0.00 | 0.30 | 0.30 | 92 | 1016.8 |
| 20260906025412 | 23 | 217 | 0.0 | 0.0 | 0.00 | 0.30 | 0.30 | 92 | 1016.7 |
| 20260906025311 | 23 | 217 | 0.0 | 0.0 | 0.00 | 0.30 | 0.30 | 92 | 1016.7 |
| 20260906025212 | 23 | 217 | 0.0 | 0.0 | 0.00 | 0.30 | 0.30 | 92 | 1016.6 |
| 20260906025109 | 23 | 217 | 0.0 | 0.0 | 0.00 | 0.30 | 0.30 | 92 | 1016.7 |
| 20260906025010 | 23 | 217 | 0.0 | 0.0 | 0.00 | 0.30 | 0.30 | 92 | 1016.7 |
| 20260906024906 | 23 | 217 | 0.0 | 0.0 | 0.00 | 0.30 | 0.30 | 92 | 1016.7 |
| 20260906024807 | 23 | 217 | 0.0 | 0.0 | 0.00 | 0.30 | 0.30 | 92 | 1016.7 |
| 20260906024705 | 23 | 217 | 0.0 | 0.0 | 0.00 | 0.30 | 0.30 | 92 | 1016.7 |
| 20260906024604 | 23 | 217 | 0.0 | 0.0 | 0.00 | 0.30 | 0.30 | 91 | 1016.7 |
| 20260906024502 | 23 | 217 | 0.0 | 0.0 | 0.00 | 0.30 | 0.30 | 91 | 1016.8 |
| 20260906024402 | 23 | 217 | 0.0 | 0.0 | 0.00 | 0.30 | 0.30 | 91 | 1016.8 |
| 20260906024301 | 23 | 217 | 0.0 | 0.0 | 0.00 | 0.30 | 0.30 | 91 | 1016.9 |
| 20260906024156 | 23 | 217 | 0.0 | 0.0 | 0.00 | 0.30 | 0.30 | 91 | 1016.7 |
| 20260906024057 | 23 | 217 | 0.0 | 0.0 | 0.00 | 0.30 | 0.30 | 91 | 1016.8 |
| 20260906023855 | 23 | 217 | 0.0 | 0.0 | 0.00 | 0.30 | 0.30 | 91 | 1016.6 |
| 20260906023753 | 23 | 217 | 0.0 | 0.0 | 0.00 | 0.30 | 0.30 | 91 | 1016.6 |
| 20260906023653 | 23 | 217 | 0.0 | 0.0 | 0.00 | 0.30 | 0.30 | 91 | 1016.6 |
| 20260906023552 | 23 | 217 | 0.0 | 0.0 | 0.00 | 0.30 | 0.30 | 91 | 1016.5 |
| 20260906023452 | 23 | 217 | 0.0 | 0.0 | 0.00 | 0.30 | 0.30 | 91 | 1016.5 |
| 20260906023350 | 23 | 217 | 0.0 | 0.0 | 0.00 | 0.30 | 0.30 | 91 | 1016.5 |
| 20260906023247 | 23 | 217 | 0.0 | 0.0 | 0.00 | 0.30 | 0.30 | 91 | 1016.5 |
| 20260906023148 | 23 | 217 | 0.0 | 0.0 | 0.00 | 0.30 | 0.30 | 91 | 1016.5 |
| 20260906023045 | 23 | 217 | 0.0 | 0.0 | 0.00 | 0.30 | 0.30 | 90 | 1016.6 |
| 20260906022844 | 23 | 217 | 0.0 | 0.0 | 0.00 | 0.30 | 0.30 | 90 | 1016.6 |
| 20260906022741 | 23 | 217 | 0.0 | 0.0 | 0.00 | 0.30 | 0.30 | 90 | 1016.6 |
| 20260906022640 | 23 | 217 | 0.0 | 0.0 | 0.00 | 0.30 | 0.30 | 90 | 1016.6 |
| 20260906022539 | 23 | 217 | 0.0 | 0.0 | 0.00 | 0.30 | 0.30 | 90 | 1016.6 |
| 20260906022439 | 23 | 217 | 0.0 | 0.0 | 0.00 | 0.30 | 0.30 | 90 | 1016.6 |
| 20260906022338 | 23 | 217 | 0.0 | 0.0 | 0.00 | 0.30 | 0.30 | 90 | 1016.6 |
| 20260906022236 | 23 | 217 | 0.0 | 0.0 | 0.00 | 0.30 | 0.30 | 90 | 1016.6 |
| 20260906022135 | 23 | 217 | 0.0 | 0.0 | 0.00 | 0.30 | 0.30 | 90 | 1016.6 |
| 20260906022035 | 23 | 217 | 0.0 | 0.0 | 0.00 | 0.30 | 0.30 | 90 | 1016.6 |
| 20260906021934 | 23 | 217 | 0.0 | 0.0 | 0.00 | 0.30 | 0.30 | 90 | 1016.5 |
| 20260906021832 | 23 | 217 | 0.0 | 0.0 | 0.00 | 0.30 | 0.30 | 90 | 1016.6 |
| 20260906021730 | 23 | 217 | 0.0 | 0.0 | 0.00 | 0.30 | 0.30 | 90 | 1016.5 |
| 20260906021629 | 23 | 217 | 0.0 | 0.0 | 0.00 | 0.30 | 0.30 | 90 | 1016.5 |
| 20260906021528 | 23 | 217 | 0.0 | 0.0 | 0.00 | 0.30 | 0.30 | 90 | 1016.5 |
| 20260906021427 | 23 | 217 | 0.0 | 0.0 | 0.00 | 0.30 | 0.30 | 91 | 1016.6 |
| 20260906021326 | 23 | 217 | 0.0 | 0.0 | 0.00 | 0.30 | 0.30 | 91 | 1016.5 |
| 20260906021224 | 23 | 217 | 0.0 | 0.0 | 0.00 | 0.30 | 0.30 | 90 | 1016.4 |
| 20260906021116 | 23 | 217 | 0.0 | 0.0 | 0.00 | 0.30 | 0.30 | 90 | 1016.4 |
| 20260906021016 | 23 | 217 | 0.0 | 0.0 | 0.00 | 0.30 | 0.30 | 90 | 1016.6 |
| 20260906020817 | 23 | 217 | 0.0 | 0.0 | 0.00 | 0.30 | 0.30 | 90 | 1016.5 |
| 20260906020718 | 23 | 217 | 0.0 | 0.0 | 0.00 | 0.30 | 0.30 | 89 | 1016.5 |
| 20260906020615 | 23 | 217 | 0.0 | 0.0 | 0.00 | 0.30 | 0.30 | 89 | 1016.3 |
| 20260906020516 | 23 | 217 | 0.0 | 0.0 | 0.00 | 0.30 | 0.30 | 89 | 1016.4 |
| 20260906020313 | 23 | 217 | 0.0 | 0.0 | 0.00 | 0.30 | 0.30 | 89 | 1016.4 |
| 20260906020211 | 23 | 217 | 0.0 | 0.0 | 0.00 | 0.30 | 0.30 | 89 | 1016.4 |
| 20260906020110 | 23 | 217 | 0.0 | 0.0 | 0.00 | 0.30 | 0.30 | 89 | 1016.4 |
| 20260906020010 | 23 | 217 | 0.0 | 0.0 | 0.00 | 0.30 | 0.30 | 89 | 1016.4 |
| 20260906015808 | 23 | 217 | 0.0 | 0.0 | 0.00 | 0.30 | 0.30 | 89 | 1016.4 |
| 20260906015706 | 23 | 217 | 0.0 | 0.0 | 0.00 | 0.30 | 0.30 | 89 | 1016.5 |
| 20260906015602 | 23 | 217 | 0.0 | 0.0 | 0.00 | 0.30 | 0.30 | 89 | 1016.4 |
| 20260906015524 | 23 | 217 | 0.0 | 0.0 | 0.00 | 0.30 | 0.30 | 89 | 1016.5 |
| 20260906015404 | 23 | 217 | 0.0 | 0.0 | 0.00 | 0.30 | 0.30 | 89 | 1016.4 |
| 20260906015305 | 23 | 217 | 0.0 | 0.0 | 0.00 | 0.30 | 0.30 | 89 | 1016.4 |
| 20260906015200 | 23 | 217 | 0.0 | 0.0 | 0.00 | 0.30 | 0.30 | 88 | 1016.4 |
| 20260906015058 | 23 | 217 | 0.0 | 0.0 | 0.00 | 0.30 | 0.30 | 88 | 1016.4 |
| 20260906014957 | 23 | 217 | 0.0 | 0.0 | 0.00 | 0.30 | 0.30 | 88 | 1016.3 |
| 20260906014856 | 23 | 217 | 0.0 | 0.0 | 0.00 | 0.30 | 0.30 | 88 | 1016.3 |
| 20260906014755 | 23 | 217 | 0.0 | 0.0 | 0.00 | 0.30 | 0.30 | 88 | 1016.3 |
| 20260906014653 | 23 | 217 | 0.0 | 0.0 | 0.00 | 0.30 | 0.30 | 88 | 1016.4 |
| 20260906014554 | 23 | 217 | 0.0 | 0.0 | 0.00 | 0.30 | 0.30 | 88 | 1016.4 |
| 20260906014451 | 23 | 217 | 0.0 | 0.0 | 0.00 | 0.30 | 0.30 | 88 | 1016.4 |
| 20260906014351 | 23 | 217 | 0.0 | 0.0 | 0.00 | 0.30 | 0.30 | 88 | 1016.4 |
| 20260906014254 | 23 | 217 | 0.0 | 0.0 | 0.00 | 0.30 | 0.30 | 88 | 1016.4 |
| 20260906014147 | 23 | 217 | 0.0 | 0.0 | 0.00 | 0.30 | 0.30 | 88 | 1016.4 |
| 20260906014044 | 23 | 217 | 0.0 | 0.0 | 0.00 | 0.30 | 0.30 | 88 | 1016.4 |
| 20260906013944 | 23 | 217 | 0.0 | 0.0 | 0.00 | 0.30 | 0.30 | 88 | 1016.4 |
| 20260906013844 | 23 | 217 | 0.0 | 0.0 | 0.00 | 0.30 | 0.30 | 87 | 1016.4 |
| 20260906013744 | 23 | 217 | 0.0 | 0.0 | 0.00 | 0.30 | 0.30 | 87 | 1016.4 |
| 20260906013642 | 23 | 217 | 0.0 | 0.0 | 0.00 | 0.30 | 0.30 | 87 | 1016.4 |
| 20260906013540 | 23 | 217 | 0.0 | 0.0 | 0.00 | 0.30 | 0.30 | 87 | 1016.4 |
| 20260906013440 | 23 | 217 | 0.0 | 0.0 | 0.00 | 0.30 | 0.30 | 87 | 1016.4 |
| 20260906013338 | 23 | 217 | 0.0 | 0.0 | 0.00 | 0.30 | 0.30 | 86 | 1016.4 |
| 20260906013236 | 23 | 217 | 0.0 | 0.0 | 0.00 | 0.30 | 0.30 | 86 | 1016.5 |
| 20260906013135 | 23 | 217 | 0.0 | 0.0 | 0.00 | 0.30 | 0.30 | 86 | 1016.4 |
| 20260906013035 | 23 | 217 | 0.0 | 0.0 | 0.00 | 0.30 | 0.30 | 86 | 1016.4 |
| 20260906012933 | 23 | 217 | 0.0 | 0.0 | 0.00 | 0.30 | 0.30 | 86 | 1016.4 |
| 20260906012834 | 23 | 217 | 0.0 | 0.0 | 0.00 | 0.30 | 0.30 | 86 | 1016.3 |
| 20260906012731 | 23 | 217 | 0.0 | 0.0 | 0.00 | 0.30 | 0.30 | 86 | 1016.4 |
| 20260906012635 | 23 | 217 | 0.0 | 0.0 | 0.00 | 0.30 | 0.30 | 86 | 1016.3 |
| 20260906012527 | 24 | 217 | 0.0 | 0.0 | 0.00 | 0.30 | 0.30 | 86 | 1016.3 |
| 20260906012427 | 24 | 217 | 0.0 | 0.0 | 0.00 | 0.30 | 0.30 | 86 | 1016.3 |
| 20260906012327 | 24 | 217 | 0.0 | 0.0 | 0.00 | 0.30 | 0.30 | 86 | 1016.3 |
| 20260906012226 | 24 | 217 | 0.0 | 0.0 | 0.00 | 0.30 | 0.30 | 86 | 1016.3 |
| 20260906012124 | 24 | 217 | 0.0 | 0.0 | 0.00 | 0.30 | 0.30 | 86 | 1016.2 |
| 20260906012024 | 24 | 217 | 0.0 | 0.0 | 0.00 | 0.30 | 0.30 | 85 | 1016.2 |
| 20260906011920 | 24 | 217 | 0.0 | 0.0 | 0.00 | 0.30 | 0.30 | 85 | 1016.2 |
| 20260906011820 | 24 | 217 | 0.0 | 0.0 | 0.00 | 0.30 | 0.30 | 85 | 1016.2 |
| 20260906011720 | 24 | 217 | 0.0 | 0.0 | 0.00 | 0.30 | 0.30 | 85 | 1016.2 |
| 20260906011618 | 24 | 217 | 0.0 | 0.0 | 0.00 | 0.30 | 0.30 | 85 | 1016.1 |
| 20260906011518 | 24 | 217 | 0.0 | 0.0 | 0.00 | 0.30 | 0.30 | 85 | 1016.1 |
| 20260906011414 | 24 | 217 | 0.0 | 1.6 | 0.00 | 0.30 | 0.30 | 85 | 1016.1 |
| 20260906011314 | 24 | 217 | 0.0 | 1.6 | 0.00 | 0.30 | 0.30 | 85 | 1016.0 |
| 20260906011214 | 24 | 217 | 0.0 | 1.6 | 0.00 | 0.30 | 0.30 | 85 | 1016.1 |
| 20260906011113 | 24 | 217 | 0.0 | 1.6 | 0.00 | 0.30 | 0.30 | 85 | 1016.0 |
| 20260906011015 | 24 | 217 | 0.0 | 1.6 | 0.00 | 0.30 | 0.30 | 85 | 1016.1 |
| 20260906010957 | 24 | 217 | 0.0 | 1.6 | 0.00 | 0.30 | 0.30 | 85 | 1016.0 |
| 20260906010810 | 24 | 217 | 0.0 | 1.6 | 0.00 | 0.30 | 0.30 | 85 | 1016.1 |
| 20260906010708 | 24 | 217 | 0.0 | 1.6 | 0.00 | 0.30 | 0.30 | 85 | 1015.9 |
| 20260906010606 | 24 | 217 | 0.0 | 1.6 | 0.00 | 0.30 | 0.30 | 85 | 1016.0 |
| 20260906010507 | 24 | 200 | 0.0 | 0.0 | 0.00 | 0.30 | 0.30 | 85 | 1015.9 |
| 20260906010406 | 24 | 199 | 0.0 | 0.0 | 0.00 | 0.30 | 0.30 | 84 | 1015.9 |
| 20260906010306 | 24 | 199 | 0.0 | 0.0 | 0.00 | 0.30 | 0.30 | 85 | 1015.9 |
| 20260906010206 | 24 | 198 | 0.0 | 0.0 | 0.00 | 0.30 | 0.30 | 85 | 1015.9 |
| 20260906010004 | 24 | 199 | 0.0 | 0.0 | 0.00 | 0.30 | 0.30 | 85 | 1015.9 |
| 20260906005802 | 24 | 199 | 0.0 | 0.0 | 0.00 | 0.30 | 0.30 | 85 | 1015.9 |
| 20260906005659 | 24 | 199 | 0.0 | 0.0 | 0.00 | 0.30 | 0.30 | 85 | 1015.8 |
| 20260906005600 | 24 | 199 | 0.0 | 0.0 | 0.00 | 0.30 | 0.30 | 85 | 1015.9 |
| 20260906005457 | 24 | 198 | 0.0 | 0.0 | 0.00 | 0.30 | 0.30 | 85 | 1016.0 |
| 20260906005258 | 24 | 198 | 0.0 | 0.0 | 0.00 | 0.30 | 0.30 | 83 | 1015.9 |
| 20260906005155 | 24 | 199 | 0.0 | 0.0 | 0.00 | 0.30 | 0.30 | 83 | 1016.0 |
| 20260906005054 | 24 | 198 | 0.0 | 0.0 | 0.00 | 0.30 | 0.30 | 83 | 1015.8 |
| 20260906004954 | 25 | 199 | 0.0 | 1.6 | 0.00 | 0.30 | 0.30 | 83 | 1015.9 |
| 20260906004754 | 25 | 199 | 0.0 | 1.6 | 0.00 | 0.30 | 0.30 | 83 | 1016.0 |
| 20260906004656 | 25 | 198 | 0.0 | 1.6 | 0.00 | 0.30 | 0.30 | 83 | 1015.9 |
| 20260906004556 | 25 | 199 | 0.0 | 1.6 | 0.00 | 0.30 | 0.30 | 83 | 1015.9 |
| 20260906004455 | 25 | 198 | 0.0 | 1.6 | 0.00 | 0.30 | 0.30 | 83 | 1015.8 |
| 20260906004252 | 25 | 198 | 0.0 | 1.6 | 0.00 | 0.30 | 0.30 | 83 | 1015.6 |
| 20260906004151 | 25 | 198 | 0.0 | 1.6 | 0.00 | 0.30 | 0.30 | 83 | 1015.8 |
| 20260906004052 | 25 | 198 | 0.0 | 1.6 | 0.00 | 0.30 | 0.30 | 84 | 1015.8 |
| 20260906004008 | 25 | 199 | 0.0 | 1.6 | 0.00 | 0.30 | 0.30 | 83 | 1015.7 |
| 20260906003949 | 25 | 224 | 0.0 | 1.6 | 0.00 | 0.30 | 0.30 | 82 | 1015.8 |
| 20260906003750 | 25 | 219 | 0.0 | 1.6 | 0.00 | 0.30 | 0.30 | 82 | 1015.6 |
| 20260906003651 | 25 | 267 | 0.0 | 1.6 | 0.00 | 0.30 | 0.30 | 82 | 1015.8 |
| 20260906003550 | 25 | 276 | 0.0 | 0.0 | 0.00 | 0.30 | 0.30 | 82 | 1015.8 |
| 20260906003451 | 25 | 276 | 0.0 | 0.0 | 0.00 | 0.30 | 0.30 | 81 | 1015.8 |
| 20260906003259 | 25 | 276 | 0.0 | 0.0 | 0.00 | 0.30 | 0.30 | 82 | 1015.9 |
| 20260906003150 | 25 | 276 | 0.0 | 0.0 | 0.00 | 0.30 | 0.30 | 81 | 1015.8 |
| 20260906003052 | 25 | 276 | 0.0 | 0.0 | 0.00 | 0.30 | 0.30 | 81 | 1015.8 |
| 20260906002950 | 25 | 276 | 0.0 | 0.0 | 0.00 | 0.30 | 0.30 | 81 | 1015.7 |
| 20260906002750 | 25 | 276 | 0.0 | 0.0 | 0.00 | 0.30 | 0.30 | 81 | 1015.6 |
| 20260906002652 | 25 | 276 | 0.0 | 0.0 | 0.00 | 0.30 | 0.30 | 81 | 1015.6 |
| 20260906002550 | 25 | 276 | 0.0 | 0.0 | 0.00 | 0.30 | 0.30 | 81 | 1015.6 |
| 20260906002451 | 25 | 276 | 0.0 | 0.0 | 0.00 | 0.30 | 0.30 | 81 | 1015.5 |
| 20260906002246 | 25 | 276 | 0.0 | 0.0 | 0.00 | 0.30 | 0.30 | 82 | 1015.6 |
| 20260906002147 | 25 | 276 | 0.0 | 1.6 | 0.00 | 0.30 | 0.30 | 82 | 1015.6 |
| 20260906002046 | 25 | 276 | 0.0 | 1.6 | 0.00 | 0.30 | 0.30 | 82 | 1015.6 |
| 20260906001948 | 25 | 276 | 0.0 | 1.6 | 0.00 | 0.30 | 0.30 | 82 | 1015.5 |
| 20260906001748 | 25 | 276 | 0.0 | 1.6 | 0.00 | 0.30 | 0.30 | 80 | 1015.5 |
| 20260906001646 | 25 | 276 | 0.0 | 1.6 | 0.00 | 0.30 | 0.30 | 79 | 1015.5 |
| 20260906001548 | 25 | 276 | 0.0 | 1.6 | 0.00 | 0.30 | 0.30 | 79 | 1015.5 |
| 20260906001446 | 25 | 276 | 0.0 | 1.6 | 0.00 | 0.30 | 0.30 | 79 | 1015.5 |
| 20260906001246 | 25 | 276 | 0.0 | 1.6 | 0.00 | 0.30 | 0.30 | 80 | 1015.5 |
| 20260906001146 | 25 | 245 | 0.0 | 1.6 | 0.00 | 0.30 | 0.30 | 80 | 1015.5 |
| 20260906001047 | 25 | 245 | 0.0 | 1.6 | 0.00 | 0.30 | 0.30 | 80 | 1015.4 |
| 20260906000946 | 26 | 245 | 0.0 | 1.6 | 0.00 | 0.30 | 0.30 | 80 | 1015.4 |
| 20260906000747 | 26 | 245 | 0.0 | 1.6 | 0.00 | 0.30 | 0.30 | 80 | 1015.5 |
| 20260906000646 | 26 | 245 | 0.0 | 1.6 | 0.00 | 0.30 | 0.30 | 80 | 1015.4 |
| 20260906000444 | 26 | 245 | 0.0 | 1.6 | 0.00 | 0.30 | 0.30 | 80 | 1015.5 |
| 20260906000243 | 26 | 245 | 0.0 | 1.6 | 0.00 | 0.30 | 0.30 | 79 | 1015.4 |
| 20260906000142 | 26 | 245 | 0.0 | 1.6 | 0.00 | 0.30 | 0.30 | 78 | 1015.3 |
| 20260906000046 | 26 | 245 | 0.0 | 1.6 | 0.00 | 0.30 | 0.30 | 79 | 1015.4 |
| 20260905235943 | 26 | 245 | 0.0 | 1.6 | 0.00 | 0.30 | 0.30 | 79 | 1015.3 |
| 20260905235744 | 26 | 245 | 0.0 | 1.6 | 0.00 | 0.30 | 0.30 | 78 | 1015.4 |
| 20260905235643 | 26 | 238 | 0.0 | 1.6 | 0.00 | 0.30 | 0.30 | 79 | 1015.4 |
| 20260905235544 | 26 | 261 | 0.0 | 1.6 | 0.00 | 0.30 | 0.30 | 79 | 1015.4 |
| 20260905235503 | 26 | 261 | 0.0 | 1.6 | 0.00 | 0.30 | 0.30 | 79 | 1015.4 |
| 20260905235445 | 26 | 261 | 0.0 | 1.6 | 0.00 | 0.30 | 0.30 | 79 | 1015.4 |
| 20260905235242 | 26 | 261 | 0.0 | 1.6 | 0.00 | 0.30 | 0.30 | 78 | 1015.3 |
| 20260905235142 | 26 | 261 | 0.0 | 1.6 | 0.00 | 0.30 | 0.30 | 79 | 1015.4 |
| 20260905235043 | 26 | 261 | 0.0 | 1.6 | 0.00 | 0.30 | 0.30 | 79 | 1015.4 |
| 20260905234944 | 26 | 260 | 0.0 | 1.6 | 0.00 | 0.30 | 0.30 | 78 | 1015.4 |
| 20260905234844 | 26 | 260 | 0.0 | 1.6 | 0.00 | 0.30 | 0.30 | 78 | 1015.4 |
| 20260905234742 | 26 | 260 | 0.0 | 1.6 | 0.00 | 0.30 | 0.30 | 78 | 1015.4 |
| 20260905234644 | 26 | 261 | 0.0 | 1.6 | 0.00 | 0.30 | 0.30 | 78 | 1015.4 |
| 20260905234538 | 26 | 260 | 0.0 | 1.6 | 0.00 | 0.30 | 0.30 | 78 | 1015.4 |
| 20260905234457 | 26 | 261 | 0.0 | 1.6 | 0.00 | 0.30 | 0.30 | 78 | 1015.4 |
| 20260905234439 | 26 | 261 | 0.0 | 1.6 | 0.00 | 0.30 | 0.30 | 79 | 1015.4 |
| 20260905234239 | 26 | 261 | 0.0 | 1.6 | 0.00 | 0.30 | 0.30 | 78 | 1015.4 |
| 20260905234140 | 26 | 260 | 0.0 | 0.0 | 0.00 | 0.30 | 0.30 | 78 | 1015.5 |
| 20260905234039 | 26 | 260 | 0.0 | 0.0 | 0.00 | 0.30 | 0.30 | 78 | 1015.5 |
| 20260905233958 | 26 | 261 | 0.0 | 0.0 | 0.00 | 0.30 | 0.30 | 78 | 1015.3 |
| 20260905233941 | 26 | 260 | 0.0 | 3.2 | 0.00 | 0.30 | 0.30 | 78 | 1015.4 |
| 20260905233739 | 26 | 261 | 0.0 | 3.2 | 0.00 | 0.30 | 0.30 | 77 | 1015.4 |
| 20260905233640 | 26 | 260 | 0.0 | 3.2 | 0.00 | 0.30 | 0.30 | 77 | 1015.4 |
| 20260905233538 | 26 | 260 | 0.0 | 3.2 | 0.00 | 0.30 | 0.30 | 77 | 1015.4 |
| 20260905233438 | 26 | 261 | 0.0 | 3.2 | 0.00 | 0.30 | 0.30 | 77 | 1015.4 |
| 20260905233340 | 26 | 261 | 0.0 | 3.2 | 0.00 | 0.30 | 0.30 | 77 | 1015.3 |
| 20260905233238 | 27 | 260 | 0.0 | 3.2 | 0.00 | 0.30 | 0.30 | 77 | 1015.3 |
| 20260905233140 | 27 | 261 | 0.0 | 3.2 | 0.00 | 0.30 | 0.30 | 77 | 1015.3 |
| 20260905233038 | 27 | 260 | 0.0 | 3.2 | 0.00 | 0.30 | 0.30 | 77 | 1015.3 |
| 20260905232958 | 27 | 261 | 0.0 | 3.2 | 0.00 | 0.30 | 0.30 | 76 | 1015.3 |
| 20260905232940 | 27 | 260 | 0.0 | 1.6 | 0.00 | 0.30 | 0.30 | 76 | 1015.3 |
| 20260905232740 | 27 | 260 | 0.0 | 1.6 | 0.00 | 0.30 | 0.30 | 76 | 1015.3 |
| 20260905232635 | 27 | 260 | 0.0 | 1.6 | 0.00 | 0.30 | 0.30 | 76 | 1015.3 |
| 20260905232536 | 27 | 260 | 0.0 | 1.6 | 0.00 | 0.30 | 0.30 | 76 | 1015.3 |
| 20260905232435 | 27 | 260 | 0.0 | 1.6 | 0.00 | 0.30 | 0.30 | 76 | 1015.3 |
| 20260905232236 | 27 | 260 | 0.0 | 1.6 | 0.00 | 0.30 | 0.30 | 76 | 1015.2 |
| 20260905232136 | 27 | 260 | 0.0 | 1.6 | 0.00 | 0.30 | 0.30 | 75 | 1015.2 |
| 20260905232035 | 27 | 260 | 0.0 | 1.6 | 0.00 | 0.30 | 0.30 | 75 | 1015.3 |
| 20260905231935 | 27 | 260 | 0.0 | 1.6 | 0.00 | 0.30 | 0.30 | 75 | 1015.2 |
| 20260905231735 | 27 | 260 | 0.0 | 1.6 | 0.00 | 0.30 | 0.30 | 74 | 1015.1 |
| 20260905231636 | 27 | 260 | 0.0 | 1.6 | 0.00 | 0.30 | 0.30 | 75 | 1015.1 |
| 20260905231534 | 27 | 260 | 0.0 | 1.6 | 0.00 | 0.30 | 0.30 | 75 | 1015.1 |
| 20260905231435 | 27 | 259 | 0.0 | 0.0 | 0.00 | 0.30 | 0.30 | 74 | 1015.1 |
| 20260905231234 | 27 | 259 | 0.0 | 0.0 | 0.00 | 0.30 | 0.30 | 75 | 1015.0 |
| 20260905231134 | 27 | 259 | 0.0 | 0.0 | 0.00 | 0.30 | 0.30 | 75 | 1015.0 |
| 20260905231035 | 27 | 259 | 0.0 | 1.6 | 0.00 | 0.30 | 0.30 | 75 | 1015.1 |
| 20260905230935 | 27 | 259 | 0.0 | 1.6 | 0.00 | 0.30 | 0.30 | 74 | 1015.1 |
| 20260905230734 | 28 | 259 | 0.0 | 1.6 | 0.00 | 0.30 | 0.30 | 73 | 1015.1 |
| 20260905230634 | 28 | 259 | 0.0 | 1.6 | 0.00 | 0.30 | 0.30 | 73 | 1015.1 |
| 20260905230533 | 28 | 259 | 0.0 | 1.6 | 0.00 | 0.30 | 0.30 | 73 | 1015.2 |
| 20260905230431 | 28 | 259 | 0.0 | 1.6 | 0.00 | 0.30 | 0.30 | 73 | 1015.2 |
| 20260905230225 | 28 | 259 | 0.0 | 1.6 | 0.00 | 0.30 | 0.30 | 73 | 1015.2 |
| 20260905230122 | 28 | 259 | 0.0 | 1.6 | 0.00 | 0.30 | 0.30 | 74 | 1015.2 |
| 20260905230023 | 28 | 259 | 0.0 | 0.0 | 0.00 | 0.30 | 0.30 | 73 | 1015.3 |
| 20260905225944 | 28 | 259 | 0.0 | 1.6 | 0.00 | 0.30 | 0.30 | 74 | 1015.3 |
| 20260905225927 | 28 | 259 | 0.0 | 1.6 | 0.00 | 0.30 | 0.30 | 73 | 1015.2 |
| 20260905225721 | 28 | 259 | 0.0 | 1.6 | 0.00 | 0.30 | 0.30 | 72 | 1015.2 |
| 20260905225622 | 28 | 259 | 0.0 | 1.6 | 0.00 | 0.30 | 0.30 | 71 | 1015.1 |
| 20260905225521 | 28 | 259 | 0.0 | 1.6 | 0.00 | 0.30 | 0.30 | 71 | 1015.2 |
| 20260905225419 | 28 | 259 | 0.0 | 1.6 | 0.00 | 0.30 | 0.30 | 70 | 1015.2 |
| 20260905225211 | 28 | 259 | 0.0 | 1.6 | 0.00 | 0.30 | 0.30 | 70 | 1015.2 |
| 20260905225111 | 28 | 259 | 0.0 | 1.6 | 0.00 | 0.30 | 0.30 | 69 | 1015.3 |
| 20260905225010 | 29 | 259 | 0.0 | 1.6 | 0.00 | 0.30 | 0.30 | 70 | 1015.2 |
| 20260905224911 | 29 | 258 | 0.0 | 1.6 | 0.00 | 0.30 | 0.30 | 70 | 1015.2 |
| 20260905224704 | 29 | 257 | 0.0 | 1.6 | 0.00 | 0.30 | 0.30 | 69 | 1015.3 |
| 20260905224605 | 29 | 257 | 0.0 | 1.6 | 0.00 | 0.30 | 0.30 | 69 | 1015.3 |
| 20260905224504 | 29 | 257 | 0.0 | 1.6 | 0.00 | 0.30 | 0.30 | 68 | 1015.3 |
| 20260905224426 | 29 | 257 | 0.0 | 3.2 | 0.00 | 0.30 | 0.30 | 69 | 1015.3 |
| 20260905224409 | 29 | 257 | 0.0 | 4.8 | 0.00 | 0.30 | 0.30 | 69 | 1015.3 |
| 20260905224202 | 29 | 257 | 0.0 | 4.8 | 0.00 | 0.30 | 0.30 | 68 | 1015.3 |
| 20260905224104 | 30 | 257 | 0.0 | 4.8 | 0.00 | 0.30 | 0.30 | 68 | 1015.3 |
| 20260905224002 | 30 | 220 | 1.6 | 4.8 | 0.00 | 0.30 | 0.30 | 67 | 1015.2 |
| 20260905223902 | 30 | 220 | 1.6 | 4.8 | 0.00 | 0.30 | 0.30 | 67 | 1015.3 |
| 20260905223655 | 30 | 167 | 1.6 | 4.8 | 0.00 | 0.30 | 0.30 | 66 | 1015.4 |
| 20260905223553 | 30 | 167 | 1.6 | 4.8 | 0.00 | 0.30 | 0.30 | 66 | 1015.3 |
| 20260905223452 | 30 | 188 | 0.0 | 4.8 | 0.00 | 0.30 | 0.30 | 66 | 1015.3 |
| 20260905223352 | 30 | 230 | 0.0 | 4.8 | 0.00 | 0.30 | 0.30 | 67 | 1015.3 |
| 20260905223148 | 30 | 269 | 0.0 | 3.2 | 0.00 | 0.30 | 0.30 | 65 | 1015.3 |
| 20260905223046 | 30 | 269 | 0.0 | 3.2 | 0.00 | 0.30 | 0.30 | 64 | 1015.2 |
| 20260905222946 | 31 | 241 | 0.0 | 1.6 | 0.00 | 0.30 | 0.30 | 64 | 1015.3 |
| 20260905222847 | 31 | 253 | 0.0 | 4.8 | 0.00 | 0.30 | 0.30 | 64 | 1015.2 |
| 20260905222642 | 31 | 192 | 0.0 | 4.8 | 0.00 | 0.30 | 0.30 | 64 | 1015.3 |
| 20260905222542 | 31 | 192 | 1.6 | 4.8 | 0.00 | 0.30 | 0.30 | 66 | 1015.3 |
| 20260905222440 | 31 | 192 | 1.6 | 4.8 | 0.00 | 0.30 | 0.30 | 64 | 1015.4 |
| 20260905222340 | 31 | 154 | 1.6 | 4.8 | 0.00 | 0.30 | 0.30 | 64 | 1015.4 |
| 20260905222141 | 31 | 153 | 1.6 | 4.8 | 0.00 | 0.30 | 0.30 | 64 | 1015.5 |
| 20260905222039 | 31 | 262 | 1.6 | 4.8 | 0.00 | 0.30 | 0.30 | 64 | 1015.4 |
| 20260905221940 | 31 | 262 | 1.6 | 4.8 | 0.00 | 0.30 | 0.30 | 63 | 1015.4 |
| 20260905221837 | 31 | 278 | 1.6 | 4.8 | 0.00 | 0.30 | 0.30 | 63 | 1015.4 |
| 20260905221629 | 31 | 219 | 1.6 | 4.8 | 0.00 | 0.30 | 0.30 | 64 | 1015.5 |
| 20260905221528 | 31 | 193 | 1.6 | 4.8 | 0.00 | 0.30 | 0.30 | 64 | 1015.4 |
| 20260905221429 | 31 | 191 | 1.6 | 3.2 | 0.00 | 0.30 | 0.30 | 64 | 1015.3 |
| 20260905221329 | 31 | 206 | 1.6 | 4.8 | 0.00 | 0.30 | 0.30 | 64 | 1015.4 |
| 20260905221129 | 31 | 297 | 1.6 | 4.8 | 0.00 | 0.30 | 0.30 | 64 | 1015.4 |
| 20260905221026 | 31 | 288 | 1.6 | 4.8 | 0.00 | 0.30 | 0.30 | 64 | 1015.4 |
| 20260905220927 | 31 | 350 | 1.6 | 4.8 | 0.00 | 0.30 | 0.30 | 64 | 1015.4 |
| 20260905220826 | 30 | 350 | 1.6 | 4.8 | 0.00 | 0.30 | 0.30 | 65 | 1015.4 |
| 20260905220616 | 30 | 235 | 1.6 | 4.8 | 0.00 | 0.30 | 0.30 | 64 | 1015.3 |
| 20260905220518 | 30 | 288 | 1.6 | 4.8 | 0.00 | 0.30 | 0.30 | 64 | 1015.4 |
| 20260905220417 | 30 | 326 | 1.6 | 4.8 | 0.00 | 0.30 | 0.30 | 65 | 1015.4 |
| 20260905220316 | 30 | 38 | 0.0 | 3.2 | 0.00 | 0.30 | 0.30 | 65 | 1015.4 |
| 20260905220113 | 30 | 354 | 1.6 | 4.8 | 0.00 | 0.30 | 0.30 | 66 | 1015.4 |
| 20260905220010 | 30 | 354 | 0.0 | 4.8 | 0.00 | 0.30 | 0.30 | 67 | 1015.4 |
| 20260905215913 | 30 | 238 | 0.0 | 4.8 | 0.00 | 0.30 | 0.30 | 67 | 1015.4 |
| 20260905215812 | 30 | 240 | 0.0 | 4.8 | 0.00 | 0.30 | 0.30 | 67 | 1015.3 |
| 20260905215610 | 29 | 359 | 0.0 | 4.8 | 0.00 | 0.30 | 0.30 | 69 | 1015.4 |
| 20260905215508 | 29 | 359 | 0.0 | 4.8 | 0.00 | 0.30 | 0.30 | 70 | 1015.4 |
| 20260905215408 | 29 | 1 | 0.0 | 4.8 | 0.00 | 0.30 | 0.30 | 69 | 1015.5 |
| 20260905215307 | 29 | 357 | 0.0 | 4.8 | 0.00 | 0.30 | 0.30 | 70 | 1015.5 |
| 20260905215104 | 28 | 359 | 0.0 | 4.8 | 0.00 | 0.30 | 0.30 | 71 | 1015.4 |
| 20260905215002 | 28 | 359 | 0.0 | 4.8 | 0.00 | 0.30 | 0.30 | 71 | 1015.5 |
| 20260905214902 | 28 | 359 | 0.0 | 4.8 | 0.00 | 0.30 | 0.30 | 70 | 1015.4 |
| 20260905214801 | 28 | 359 | 1.6 | 4.8 | 0.00 | 0.30 | 0.30 | 70 | 1015.5 |
| 20260905214558 | 29 | 295 | 1.6 | 4.8 | 0.00 | 0.30 | 0.30 | 69 | 1015.4 |
| 20260905214456 | 29 | 283 | 1.6 | 4.8 | 0.00 | 0.30 | 0.30 | 69 | 1015.6 |
| 20260905214358 | 29 | 259 | 1.6 | 4.8 | 0.00 | 0.30 | 0.30 | 69 | 1015.6 |
| 20260905214254 | 29 | 245 | 1.6 | 4.8 | 0.00 | 0.30 | 0.30 | 70 | 1015.5 |
| 20260905214048 | 29 | 208 | 1.6 | 4.8 | 0.00 | 0.30 | 0.30 | 71 | 1015.6 |
| 20260905213950 | 29 | 208 | 1.6 | 4.8 | 0.00 | 0.30 | 0.30 | 69 | 1015.5 |
| 20260905213848 | 29 | 231 | 1.6 | 4.8 | 0.00 | 0.30 | 0.30 | 69 | 1015.5 |
| 20260905213748 | 29 | 255 | 1.6 | 4.8 | 0.00 | 0.30 | 0.30 | 70 | 1015.6 |
| 20260905213543 | 29 | 202 | 1.6 | 6.4 | 0.00 | 0.30 | 0.30 | 68 | 1015.6 |
| 20260905213442 | 29 | 226 | 0.0 | 6.4 | 0.00 | 0.30 | 0.30 | 69 | 1015.7 |
| 20260905213341 | 29 | 233 | 0.0 | 6.4 | 0.00 | 0.30 | 0.30 | 69 | 1015.6 |
| 20260905213242 | 29 | 227 | 1.6 | 6.4 | 0.00 | 0.30 | 0.30 | 69 | 1015.7 |
| 20260905212940 | 29 | 219 | 1.6 | 6.4 | 0.00 | 0.30 | 0.30 | 70 | 1015.7 |
| 20260905212840 | 29 | 177 | 1.6 | 6.4 | 0.00 | 0.30 | 0.30 | 70 | 1015.7 |
| 20260905212736 | 29 | 176 | 1.6 | 6.4 | 0.00 | 0.30 | 0.30 | 69 | 1015.7 |
| 20260905212529 | 29 | 186 | 1.6 | 4.8 | 0.00 | 0.30 | 0.30 | 69 | 1015.7 |
| 20260905212429 | 29 | 184 | 1.6 | 4.8 | 0.00 | 0.30 | 0.30 | 69 | 1015.7 |
| 20260905212328 | 29 | 212 | 1.6 | 4.8 | 0.00 | 0.30 | 0.30 | 68 | 1015.6 |
| 20260905212228 | 29 | 212 | 1.6 | 4.8 | 0.00 | 0.30 | 0.30 | 69 | 1015.7 |
| 20260905212026 | 29 | 188 | 1.6 | 4.8 | 0.00 | 0.30 | 0.30 | 70 | 1015.7 |
| 20260905211926 | 29 | 211 | 1.6 | 4.8 | 0.00 | 0.30 | 0.30 | 68 | 1015.7 |
| 20260905211827 | 29 | 255 | 1.6 | 9.7 | 0.00 | 0.30 | 0.30 | 69 | 1015.7 |
| 20260905211724 | 29 | 276 | 1.6 | 9.7 | 0.00 | 0.30 | 0.30 | 69 | 1015.8 |
| 20260905211516 | 29 | 220 | 1.6 | 9.7 | 0.00 | 0.30 | 0.30 | 68 | 1015.7 |
| 20260905211417 | 29 | 149 | 1.6 | 9.7 | 0.00 | 0.30 | 0.30 | 69 | 1015.8 |
| 20260905211316 | 29 | 356 | 1.6 | 9.7 | 0.00 | 0.30 | 0.30 | 69 | 1015.6 |
| 20260905211217 | 29 | 257 | 1.6 | 9.7 | 0.00 | 0.30 | 0.30 | 68 | 1015.6 |
| 20260905211010 | 29 | 244 | 1.6 | 9.7 | 0.00 | 0.30 | 0.30 | 68 | 1015.5 |
| 20260905210911 | 29 | 272 | 1.6 | 9.7 | 0.00 | 0.30 | 0.30 | 68 | 1015.6 |
| 20260905210810 | 29 | 166 | 1.6 | 8.0 | 0.00 | 0.30 | 0.30 | 69 | 1015.5 |
| 20260905210714 | 29 | 212 | 1.6 | 8.0 | 0.00 | 0.30 | 0.30 | 68 | 1015.5 |
| 20260905210506 | 29 | 233 | 1.6 | 8.0 | 0.00 | 0.30 | 0.30 | 68 | 1015.6 |
| 20260905210406 | 29 | 276 | 1.6 | 8.0 | 0.00 | 0.30 | 0.30 | 68 | 1015.4 |
| 20260905210306 | 29 | 256 | 1.6 | 8.0 | 0.00 | 0.30 | 0.30 | 68 | 1015.4 |
| 20260905210206 | 29 | 224 | 1.6 | 8.0 | 0.00 | 0.30 | 0.30 | 68 | 1015.4 |
| 20260905205958 | 29 | 307 | 1.6 | 6.4 | 0.00 | 0.30 | 0.30 | 68 | 1015.5 |
| 20260905205858 | 29 | 264 | 1.6 | 6.4 | 0.00 | 0.30 | 0.30 | 68 | 1015.4 |
| 20260905205758 | 29 | 293 | 1.6 | 6.4 | 0.00 | 0.30 | 0.30 | 68 | 1015.3 |
| 20260905205700 | 29 | 226 | 1.6 | 8.0 | 0.00 | 0.30 | 0.30 | 67 | 1015.3 |
| 20260905205454 | 29 | 218 | 1.6 | 8.0 | 0.00 | 0.30 | 0.30 | 67 | 1015.3 |
| 20260905205352 | 29 | 186 | 1.6 | 9.7 | 0.00 | 0.30 | 0.30 | 68 | 1015.3 |
| 20260905205252 | 29 | 97 | 1.6 | 9.7 | 0.00 | 0.30 | 0.30 | 68 | 1015.3 |
| 20260905205152 | 30 | 77 | 1.6 | 9.7 | 0.00 | 0.30 | 0.30 | 67 | 1015.3 |
| 20260905204945 | 30 | 41 | 1.6 | 9.7 | 0.00 | 0.30 | 0.30 | 67 | 1015.4 |
| 20260905204846 | 30 | 139 | 3.2 | 9.7 | 0.00 | 0.30 | 0.30 | 67 | 1015.4 |
| 20260905204747 | 30 | 177 | 3.2 | 11.3 | 0.00 | 0.30 | 0.30 | 66 | 1015.4 |
| 20260905204646 | 30 | 198 | 3.2 | 11.3 | 0.00 | 0.30 | 0.30 | 67 | 1015.4 |
| 20260905204442 | 30 | 169 | 3.2 | 11.3 | 0.00 | 0.30 | 0.30 | 67 | 1015.4 |
| 20260905204342 | 30 | 325 | 3.2 | 11.3 | 0.00 | 0.30 | 0.30 | 68 | 1015.3 |
| 20260905204243 | 30 | 258 | 3.2 | 11.3 | 0.00 | 0.30 | 0.30 | 69 | 1015.3 |
| 20260905204142 | 30 | 139 | 3.2 | 11.3 | 0.00 | 0.30 | 0.30 | 67 | 1015.3 |
| 20260905203936 | 30 | 162 | 3.2 | 11.3 | 0.00 | 0.30 | 0.30 | 67 | 1015.3 |
| 20260905203838 | 30 | 200 | 3.2 | 11.3 | 0.00 | 0.30 | 0.30 | 67 | 1015.4 |
| 20260905203736 | 30 | 226 | 4.8 | 16.1 | 0.00 | 0.30 | 0.30 | 66 | 1015.3 |
| 20260905203637 | 30 | 300 | 4.8 | 16.1 | 0.00 | 0.30 | 0.30 | 66 | 1015.3 |
| 20260905203427 | 30 | 163 | 4.8 | 16.1 | 0.00 | 0.30 | 0.30 | 69 | 1015.3 |
| 20260905203329 | 30 | 291 | 4.8 | 16.1 | 0.00 | 0.30 | 0.30 | 68 | 1015.3 |
| 20260905203229 | 30 | 210 | 4.8 | 16.1 | 0.00 | 0.30 | 0.30 | 66 | 1015.4 |
| 20260905203129 | 30 | 217 | 4.8 | 16.1 | 0.00 | 0.30 | 0.30 | 67 | 1015.4 |
| 20260905202923 | 30 | 286 | 4.8 | 16.1 | 0.00 | 0.30 | 0.30 | 67 | 1015.5 |
| 20260905202823 | 30 | 218 | 3.2 | 16.1 | 0.00 | 0.30 | 0.30 | 67 | 1015.5 |
| 20260905202723 | 30 | 169 | 3.2 | 11.3 | 0.00 | 0.30 | 0.30 | 66 | 1015.5 |
| 20260905202644 | 30 | 224 | 3.2 | 11.3 | 0.00 | 0.30 | 0.30 | 68 | 1015.6 |
| 20260905202627 | 30 | 171 | 3.2 | 8.0 | 0.00 | 0.30 | 0.30 | 71 | 1015.5 |
| 20260905202421 | 30 | 169 | 3.2 | 8.0 | 0.00 | 0.30 | 0.30 | 69 | 1015.6 |
| 20260905202317 | 30 | 171 | 3.2 | 8.0 | 0.00 | 0.30 | 0.30 | 69 | 1015.6 |
| 20260905202218 | 30 | 224 | 3.2 | 11.3 | 0.00 | 0.30 | 0.30 | 68 | 1015.6 |
| 20260905202118 | 30 | 188 | 3.2 | 11.3 | 0.00 | 0.30 | 0.30 | 70 | 1015.6 |
| 20260905201911 | 30 | 296 | 3.2 | 11.3 | 0.00 | 0.30 | 0.30 | 70 | 1015.5 |
| 20260905201811 | 30 | 265 | 3.2 | 11.3 | 0.00 | 0.30 | 0.30 | 72 | 1015.5 |
| 20260905201710 | 29 | 215 | 3.2 | 11.3 | 0.00 | 0.30 | 0.30 | 73 | 1015.4 |
| 20260905201611 | 29 | 192 | 3.2 | 11.3 | 0.00 | 0.30 | 0.30 | 72 | 1015.4 |
| 20260905201408 | 29 | 177 | 3.2 | 11.3 | 0.00 | 0.30 | 0.30 | 72 | 1015.5 |
| 20260905201310 | 29 | 215 | 3.2 | 11.3 | 0.00 | 0.30 | 0.30 | 74 | 1015.6 |
| 20260905201206 | 29 | 205 | 3.2 | 9.7 | 0.00 | 0.30 | 0.30 | 71 | 1015.8 |
| 20260905201106 | 29 | 176 | 3.2 | 9.7 | 0.00 | 0.30 | 0.30 | 73 | 1015.7 |
| 20260905200900 | 28 | 247 | 3.2 | 9.7 | 0.00 | 0.30 | 0.30 | 74 | 1015.8 |
| 20260905200800 | 28 | 214 | 3.2 | 9.7 | 0.00 | 0.30 | 0.30 | 75 | 1015.8 |
| 20260905200700 | 28 | 144 | 3.2 | 9.7 | 0.00 | 0.30 | 0.30 | 73 | 1015.7 |
| 20260905200601 | 28 | 211 | 3.2 | 9.7 | 0.00 | 0.30 | 0.30 | 77 | 1015.8 |
| 20260905200355 | 28 | 217 | 4.8 | 9.7 | 0.00 | 0.30 | 0.30 | 76 | 1015.8 |
| 20260905200252 | 28 | 289 | 3.2 | 9.7 | 0.00 | 0.30 | 0.30 | 75 | 1015.8 |
| 20260905200153 | 28 | 176 | 3.2 | 9.7 | 0.00 | 0.30 | 0.30 | 74 | 1015.7 |
| 20260905200052 | 28 | 170 | 3.2 | 9.7 | 0.00 | 0.30 | 0.30 | 74 | 1015.7 |
| 20260905195846 | 28 | 189 | 1.6 | 9.7 | 0.00 | 0.30 | 0.30 | 74 | 1015.7 |
| 20260905195746 | 28 | 254 | 1.6 | 9.7 | 0.00 | 0.30 | 0.30 | 73 | 1015.7 |
| 20260905195646 | 28 | 217 | 1.6 | 8.0 | 0.00 | 0.30 | 0.30 | 73 | 1015.8 |
| 20260905195547 | 28 | 168 | 1.6 | 8.0 | 0.00 | 0.30 | 0.30 | 73 | 1015.8 |
| 20260905195347 | 28 | 229 | 0.0 | 6.4 | 0.00 | 0.30 | 0.30 | 77 | 1015.8 |
| 20260905195245 | 28 | 169 | 0.0 | 6.4 | 0.00 | 0.30 | 0.30 | 77 | 1015.8 |
| 20260905195145 | 28 | 240 | 0.0 | 6.4 | 0.00 | 0.30 | 0.30 | 76 | 1015.8 |
| 20260905195043 | 28 | 268 | 0.0 | 6.4 | 0.00 | 0.30 | 0.30 | 75 | 1015.8 |
| 20260905194833 | 28 | 345 | 0.0 | 6.4 | 0.00 | 0.30 | 0.30 | 75 | 1015.7 |
| 20260905194734 | 28 | 341 | 0.0 | 6.4 | 0.00 | 0.30 | 0.30 | 77 | 1015.7 |
| 20260905194635 | 27 | 341 | 0.0 | 6.4 | 0.00 | 0.30 | 0.30 | 76 | 1015.6 |
| 20260905194536 | 27 | 353 | 0.0 | 4.8 | 0.00 | 0.30 | 0.30 | 77 | 1015.6 |
| 20260905194334 | 27 | 315 | 1.6 | 4.8 | 0.00 | 0.30 | 0.30 | 77 | 1015.6 |
| 20260905194231 | 27 | 306 | 1.6 | 9.7 | 0.00 | 0.30 | 0.30 | 77 | 1015.5 |
| 20260905194133 | 27 | 294 | 1.6 | 9.7 | 0.00 | 0.30 | 0.30 | 77 | 1015.5 |
| 20260905194031 | 27 | 292 | 1.6 | 9.7 | 0.00 | 0.30 | 0.30 | 78 | 1015.4 |
| 20260905193822 | 27 | 268 | 3.2 | 9.7 | 0.00 | 0.30 | 0.30 | 79 | 1015.5 |
| 20260905193723 | 27 | 169 | 3.2 | 9.7 | 0.00 | 0.30 | 0.30 | 80 | 1015.4 |
| 20260905193624 | 27 | 273 | 3.2 | 9.7 | 0.00 | 0.30 | 0.30 | 80 | 1015.4 |
| 20260905193521 | 26 | 162 | 3.2 | 9.7 | 0.00 | 0.30 | 0.30 | 80 | 1015.4 |
| 20260905193316 | 26 | 180 | 3.2 | 9.7 | 0.00 | 0.30 | 0.30 | 83 | 1015.5 |
| 20260905193217 | 26 | 172 | 3.2 | 9.7 | 0.00 | 0.30 | 0.30 | 82 | 1015.7 |
| 20260905193117 | 26 | 245 | 1.6 | 9.7 | 0.00 | 0.30 | 0.30 | 83 | 1015.6 |
| 20260905193016 | 26 | 265 | 1.6 | 9.7 | 0.00 | 0.30 | 0.30 | 82 | 1015.6 |
| 20260905192812 | 26 | 184 | 1.6 | 9.7 | 0.00 | 0.30 | 0.30 | 85 | 1015.8 |
| 20260905192710 | 26 | 270 | 1.6 | 9.7 | 0.00 | 0.30 | 0.30 | 84 | 1015.8 |
| 20260905192612 | 26 | 216 | 1.6 | 11.3 | 0.00 | 0.30 | 0.30 | 86 | 1015.8 |
| 20260905192511 | 25 | 179 | 1.6 | 11.3 | 0.00 | 0.30 | 0.30 | 86 | 1015.8 |
| 20260905192311 | 25 | 288 | 1.6 | 11.3 | 0.00 | 0.30 | 0.30 | 86 | 1015.8 |
| 20260905192208 | 25 | 288 | 3.2 | 11.3 | 0.00 | 0.30 | 0.30 | 86 | 1015.8 |
| 20260905192108 | 25 | 279 | 3.2 | 11.3 | 0.00 | 0.30 | 0.30 | 87 | 1015.8 |
| 20260905192007 | 25 | 70 | 3.2 | 11.3 | 0.00 | 0.30 | 0.30 | 87 | 1015.8 |
| 20260905191800 | 25 | 51 | 4.8 | 11.3 | 0.00 | 0.30 | 0.30 | 88 | 1016.0 |
| 20260905191704 | 25 | 231 | 4.8 | 11.3 | 0.00 | 0.30 | 0.30 | 88 | 1016.0 |
| 20260905191558 | 25 | 212 | 4.8 | 9.7 | 0.00 | 0.30 | 0.30 | 89 | 1016.0 |
| 20260905191500 | 25 | 139 | 3.2 | 9.7 | 0.00 | 0.30 | 0.30 | 91 | 1016.1 |
| 20260905191359 | 25 | 193 | 3.2 | 9.7 | 0.00 | 0.30 | 0.30 | 91 | 1016.0 |
| 20260905191259 | 25 | 247 | 3.2 | 9.7 | 0.00 | 0.30 | 0.30 | 91 | 1015.8 |
| 20260905191157 | 25 | 215 | 3.2 | 9.7 | 0.00 | 0.30 | 0.30 | 91 | 1015.6 |
| 20260905191054 | 25 | 226 | 3.2 | 8.0 | 0.00 | 0.30 | 0.30 | 91 | 1015.5 |
| 20260905190955 | 25 | 176 | 3.2 | 8.0 | 0.00 | 0.30 | 0.30 | 91 | 1015.4 |
| 20260905190853 | 25 | 203 | 3.2 | 8.0 | 0.00 | 0.30 | 0.30 | 91 | 1015.3 |
| 20260905190748 | 25 | 218 | 1.6 | 8.0 | 0.00 | 0.30 | 0.30 | 92 | 1015.2 |
| 20260905190649 | 25 | 200 | 1.6 | 6.4 | 0.00 | 0.30 | 0.30 | 93 | 1015.1 |
| 20260905190548 | 24 | 220 | 1.6 | 6.4 | 0.00 | 0.30 | 0.30 | 93 | 1015.0 |
| 20260905190518 | 24 | 218 | 1.6 | 6.4 | 0.00 | 0.30 | 0.30 | 93 | 1015.0 |
| 20260905190347 | 24 | 212 | 1.6 | 6.4 | 0.00 | 0.30 | 0.30 | 92 | 1015.1 |
| 20260905190247 | 24 | 240 | 0.0 | 6.4 | 0.00 | 0.30 | 0.30 | 92 | 1015.0 |
| 20260905190145 | 24 | 187 | 0.0 | 6.4 | 0.00 | 0.30 | 0.30 | 91 | 1014.9 |
| 20260905190043 | 24 | 187 | 0.0 | 6.4 | 0.00 | 0.30 | 0.30 | 91 | 1014.9 |
| 20260905190014 | 24 | 236 | 0.0 | 6.4 | 0.00 | 0.30 | 0.30 | 91 | 1014.8 |
| 20260905185841 | 24 | 322 | 0.0 | 1.6 | 0.00 | 0.30 | 0.30 | 92 | 1014.7 |
| 20260905185741 | 24 | 323 | 0.0 | 1.6 | 0.00 | 0.30 | 0.30 | 92 | 1014.6 |
| 20260905185638 | 24 | 236 | 0.0 | 1.6 | 0.00 | 0.30 | 0.30 | 93 | 1014.3 |
| 20260905185539 | 24 | 236 | 0.0 | 1.6 | 0.00 | 0.30 | 0.30 | 93 | 1014.4 |
| 20260905185437 | 24 | 236 | 0.0 | 1.6 | 0.00 | 0.30 | 0.30 | 92 | 1014.3 |
| 20260905185335 | 24 | 247 | 0.0 | 1.6 | 0.00 | 0.30 | 0.30 | 92 | 1014.3 |
| 20260905185235 | 24 | 115 | 0.0 | 0.0 | 0.03 | 0.30 | 0.30 | 92 | 1014.3 |
| 20260905185132 | 24 | 115 | 0.0 | 0.0 | 0.03 | 0.30 | 0.30 | 93 | 1014.5 |
| 20260905185033 | 24 | 115 | 0.0 | 3.2 | 0.08 | 0.30 | 0.30 | 92 | 1014.4 |
| 20260905184932 | 24 | 115 | 0.0 | 3.2 | 0.18 | 0.30 | 0.30 | 93 | 1014.5 |
| 20260905184829 | 24 | 115 | 0.0 | 3.2 | 0.20 | 0.30 | 0.30 | 92 | 1014.6 |
| 20260905184729 | 24 | 115 | 0.0 | 3.2 | 0.25 | 0.30 | 0.30 | 92 | 1014.6 |
| 20260905184626 | 24 | 115 | 0.0 | 3.2 | 0.25 | 0.30 | 0.30 | 92 | 1014.7 |
| 20260905184526 | 24 | 115 | 0.0 | 3.2 | 0.25 | 0.30 | 0.30 | 92 | 1014.7 |
| 20260905184508 | 24 | 114 | 0.0 | 3.2 | 0.25 | 0.30 | 0.30 | 92 | 1014.7 |
| 20260905184322 | 24 | 114 | 0.0 | 3.2 | 0.25 | 0.30 | 0.30 | 92 | 1014.8 |
| 20260905184218 | 24 | 114 | 0.0 | 3.2 | 0.25 | 0.30 | 0.30 | 92 | 1014.8 |
| 20260905184117 | 24 | 114 | 0.0 | 3.2 | 0.25 | 0.30 | 0.30 | 91 | 1014.9 |
| 20260905184018 | 24 | 115 | 0.0 | 3.2 | 0.25 | 0.30 | 0.30 | 91 | 1015.0 |
| 20260905183919 | 24 | 114 | 1.6 | 8.0 | 0.25 | 0.30 | 0.30 | 91 | 1015.1 |
| 20260905183817 | 24 | 115 | 1.6 | 8.0 | 0.25 | 0.30 | 0.30 | 91 | 1015.2 |
| 20260905183710 | 24 | 115 | 1.6 | 8.0 | 0.25 | 0.30 | 0.30 | 91 | 1015.4 |
| 20260905183611 | 24 | 117 | 1.6 | 8.0 | 0.25 | 0.30 | 0.30 | 88 | 1015.5 |
| 20260905183510 | 24 | 127 | 1.6 | 8.0 | 0.25 | 0.30 | 0.30 | 88 | 1015.7 |
| 20260905183411 | 24 | 75 | 1.6 | 8.0 | 0.25 | 0.30 | 0.30 | 89 | 1015.8 |
| 20260905183310 | 24 | 59 | 1.6 | 8.0 | 0.25 | 0.30 | 0.30 | 88 | 1015.9 |
| 20260905183210 | 25 | 59 | 1.6 | 8.0 | 0.25 | 0.30 | 0.30 | 88 | 1016.0 |
| 20260905183109 | 25 | 58 | 1.6 | 8.0 | 0.25 | 0.30 | 0.30 | 88 | 1016.0 |
| 20260905183022 | 25 | 21 | 1.6 | 8.0 | 0.25 | 0.30 | 0.30 | 88 | 1016.1 |
| 20260905183006 | 25 | 81 | 1.6 | 6.4 | 0.25 | 0.30 | 0.30 | 88 | 1016.0 |
| 20260905182805 | 25 | 311 | 1.6 | 9.7 | 0.25 | 0.30 | 0.30 | 89 | 1016.1 |
| 20260905182700 | 25 | 35 | 1.6 | 9.7 | 0.25 | 0.30 | 0.30 | 88 | 1016.0 |
| 20260905182559 | 25 | 35 | 1.6 | 9.7 | 0.25 | 0.30 | 0.30 | 87 | 1016.0 |
| 20260905182457 | 25 | 35 | 1.6 | 9.7 | 0.25 | 0.30 | 0.30 | 87 | 1015.9 |
| 20260905182400 | 25 | 18 | 1.6 | 9.7 | 0.25 | 0.30 | 0.30 | 88 | 1015.9 |
| 20260905182259 | 25 | 100 | 1.6 | 9.7 | 0.25 | 0.30 | 0.30 | 87 | 1015.9 |
| 20260905182151 | 25 | 101 | 1.6 | 11.3 | 0.25 | 0.30 | 0.30 | 87 | 1016.0 |
| 20260905182052 | 25 | 34 | 1.6 | 11.3 | 0.25 | 0.30 | 0.30 | 87 | 1016.0 |
| 20260905181953 | 25 | 58 | 1.6 | 11.3 | 0.25 | 0.30 | 0.30 | 86 | 1016.0 |
| 20260905181854 | 25 | 87 | 1.6 | 11.3 | 0.25 | 0.30 | 0.30 | 87 | 1016.0 |
| 20260905181753 | 25 | 266 | 1.6 | 11.3 | 0.25 | 0.30 | 0.30 | 87 | 1016.1 |
| 20260905181648 | 25 | 96 | 1.6 | 11.3 | 0.25 | 0.30 | 0.30 | 86 | 1016.2 |
| 20260905181546 | 25 | 183 | 1.6 | 11.3 | 0.25 | 0.30 | 0.30 | 86 | 1016.1 |
| 20260905181445 | 25 | 314 | 1.6 | 11.3 | 0.25 | 0.30 | 0.30 | 85 | 1016.3 |
| 20260905181345 | 25 | 22 | 1.6 | 11.3 | 0.25 | 0.30 | 0.30 | 85 | 1016.2 |
| 20260905181247 | 25 | 66 | 1.6 | 11.3 | 0.25 | 0.30 | 0.30 | 85 | 1016.3 |
| 20260905181144 | 25 | 248 | 1.6 | 9.7 | 0.25 | 0.30 | 0.30 | 84 | 1016.2 |
| 20260905181048 | 26 | 78 | 1.6 | 9.7 | 0.25 | 0.30 | 0.30 | 84 | 1016.4 |
| 20260905180942 | 26 | 24 | 1.6 | 9.7 | 0.25 | 0.30 | 0.30 | 83 | 1016.4 |
| 20260905180842 | 26 | 68 | 1.6 | 9.7 | 0.25 | 0.30 | 0.30 | 84 | 1016.4 |
| 20260905180740 | 26 | 8 | 1.6 | 9.7 | 0.25 | 0.30 | 0.30 | 84 | 1016.4 |
| 20260905180639 | 26 | 31 | 1.6 | 9.7 | 0.25 | 0.30 | 0.30 | 84 | 1016.5 |
| 20260905180538 | 26 | 251 | 1.6 | 9.7 | 0.25 | 0.30 | 0.30 | 83 | 1016.5 |
| 20260905180439 | 26 | 5 | 1.6 | 6.4 | 0.25 | 0.30 | 0.30 | 83 | 1016.6 |
| 20260905180336 | 26 | 50 | 1.6 | 6.4 | 0.25 | 0.30 | 0.30 | 84 | 1016.6 |
| 20260905180235 | 26 | 28 | 1.6 | 6.4 | 0.25 | 0.30 | 0.30 | 84 | 1016.5 |
| 20260905180131 | 26 | 46 | 1.6 | 6.4 | 0.25 | 0.30 | 0.30 | 82 | 1016.6 |
| 20260905180027 | 27 | 243 | 1.6 | 8.0 | 0.25 | 0.30 | 0.30 | 80 | 1016.5 |
| 20260905175927 | 27 | 57 | 1.6 | 9.7 | 0.25 | 0.30 | 0.30 | 83 | 1016.7 |
| 20260905175827 | 27 | 63 | 3.2 | 17.7 | 0.25 | 0.30 | 0.30 | 83 | 1016.7 |
| 20260905175731 | 27 | 13 | 3.2 | 17.7 | 0.25 | 0.30 | 0.30 | 82 | 1016.7 |
| 20260905175623 | 28 | 13 | 3.2 | 17.7 | 0.25 | 0.30 | 0.30 | 81 | 1016.8 |
| 20260905175521 | 28 | 359 | 4.8 | 17.7 | 0.25 | 0.30 | 0.30 | 80 | 1016.8 |
| 20260905175423 | 28 | 87 | 4.8 | 17.7 | 0.25 | 0.30 | 0.30 | 78 | 1016.9 |
| 20260905175322 | 29 | 78 | 4.8 | 17.7 | 0.23 | 0.28 | 0.30 | 77 | 1016.9 |
| 20260905175223 | 30 | 73 | 6.4 | 17.7 | 0.23 | 0.28 | 0.28 | 76 | 1017.0 |
| 20260905175111 | 30 | 110 | 6.4 | 20.9 | 0.23 | 0.28 | 0.28 | 74 | 1017.3 |
| 20260905175013 | 31 | 295 | 6.4 | 20.9 | 0.18 | 0.23 | 0.23 | 72 | 1017.2 |
| 20260905174913 | 31 | 37 | 6.4 | 20.9 | 0.08 | 0.13 | 0.15 | 69 | 1017.0 |
| 20260905174812 | 32 | 35 | 4.8 | 20.9 | 0.05 | 0.10 | 0.10 | 66 | 1016.8 |
| 20260905174714 | 32 | 77 | 4.8 | 20.9 | 0.00 | 0.05 | 0.05 | 64 | 1016.6 |
| 20260905174609 | 32 | 359 | 4.8 | 20.9 | 0.00 | 0.05 | 0.05 | 63 | 1016.4 |
| 20260905174506 | 32 | 330 | 4.8 | 20.9 | 0.00 | 0.05 | 0.05 | 64 | 1016.3 |
| 20260905174407 | 33 | 308 | 4.8 | 20.9 | 0.00 | 0.05 | 0.05 | 62 | 1016.3 |
| 20260905174306 | 33 | 32 | 3.2 | 20.9 | 0.00 | 0.05 | 0.05 | 63 | 1016.3 |
| 20260905174207 | 33 | 49 | 3.2 | 20.9 | 0.00 | 0.05 | 0.05 | 63 | 1016.2 |
| 20260905174103 | 33 | 337 | 1.6 | 9.7 | 0.00 | 0.05 | 0.05 | 63 | 1016.1 |
| 20260905174005 | 33 | 335 | 1.6 | 9.7 | 0.00 | 0.05 | 0.05 | 66 | 1016.0 |
| 20260905173901 | 33 | 321 | 3.2 | 9.7 | 0.00 | 0.05 | 0.05 | 63 | 1016.1 |
| 20260905173803 | 33 | 341 | 3.2 | 11.3 | 0.00 | 0.05 | 0.05 | 63 | 1016.1 |
| 20260905173701 | 33 | 252 | 3.2 | 12.9 | 0.00 | 0.05 | 0.05 | 62 | 1016.1 |
| 20260905173557 | 33 | 72 | 3.2 | 14.5 | 0.00 | 0.05 | 0.05 | 62 | 1016.1 |
| 20260905173454 | 33 | 336 | 3.2 | 14.5 | 0.00 | 0.05 | 0.05 | 63 | 1016.1 |
| 20260905173354 | 33 | 286 | 3.2 | 14.5 | 0.00 | 0.05 | 0.05 | 63 | 1016.1 |
| 20260905173253 | 33 | 14 | 3.2 | 14.5 | 0.00 | 0.05 | 0.05 | 63 | 1016.1 |
| 20260905173155 | 33 | 345 | 3.2 | 14.5 | 0.00 | 0.05 | 0.05 | 63 | 1016.1 |
| 20260905173048 | 33 | 51 | 3.2 | 14.5 | 0.00 | 0.05 | 0.05 | 61 | 1016.1 |
| 20260905172948 | 33 | 51 | 3.2 | 14.5 | 0.00 | 0.05 | 0.05 | 61 | 1016.2 |
| 20260905172849 | 33 | 359 | 3.2 | 14.5 | 0.00 | 0.05 | 0.05 | 61 | 1016.1 |
| 20260905172748 | 34 | 76 | 4.8 | 14.5 | 0.00 | 0.05 | 0.05 | 61 | 1016.2 |
| 20260905172649 | 34 | 55 | 3.2 | 17.7 | 0.00 | 0.05 | 0.05 | 63 | 1016.3 |
| 20260905172543 | 34 | 335 | 4.8 | 17.7 | 0.00 | 0.05 | 0.05 | 63 | 1016.3 |
| 20260905172441 | 34 | 114 | 4.8 | 17.7 | 0.00 | 0.05 | 0.05 | 61 | 1016.4 |
| 20260905172345 | 34 | 278 | 4.8 | 17.7 | 0.00 | 0.05 | 0.05 | 62 | 1016.4 |
| 20260905172242 | 34 | 174 | 4.8 | 17.7 | 0.00 | 0.05 | 0.05 | 61 | 1016.5 |
| 20260905172143 | 34 | 342 | 4.8 | 17.7 | 0.00 | 0.05 | 0.05 | 62 | 1016.5 |
| 20260905172037 | 34 | 201 | 4.8 | 17.7 | 0.00 | 0.05 | 0.05 | 61 | 1016.5 |
| 20260905171936 | 34 | 39 | 3.2 | 17.7 | 0.00 | 0.05 | 0.05 | 60 | 1016.4 |
| 20260905171837 | 34 | 264 | 3.2 | 17.7 | 0.00 | 0.05 | 0.05 | 60 | 1016.6 |
| 20260905171736 | 34 | 43 | 3.2 | 16.1 | 0.00 | 0.05 | 0.05 | 61 | 1016.6 |
| 20260905171637 | 34 | 243 | 3.2 | 16.1 | 0.00 | 0.05 | 0.05 | 61 | 1016.5 |
| 20260905171537 | 34 | 273 | 3.2 | 11.3 | 0.00 | 0.05 | 0.05 | 61 | 1016.6 |
| 20260905171434 | 34 | 249 | 3.2 | 16.1 | 0.00 | 0.05 | 0.05 | 60 | 1016.6 |
| 20260905171331 | 34 | 254 | 3.2 | 16.1 | 0.00 | 0.05 | 0.05 | 63 | 1016.6 |
| 20260905171232 | 34 | 316 | 3.2 | 16.1 | 0.00 | 0.05 | 0.05 | 62 | 1016.7 |
| 20260905171130 | 34 | 124 | 3.2 | 16.1 | 0.00 | 0.05 | 0.05 | 64 | 1016.8 |
| 20260905171026 | 34 | 9 | 4.8 | 16.1 | 0.00 | 0.05 | 0.05 | 63 | 1016.7 |
| 20260905170923 | 34 | 238 | 4.8 | 19.3 | 0.00 | 0.05 | 0.05 | 62 | 1016.8 |
| 20260905170825 | 34 | 257 | 4.8 | 19.3 | 0.00 | 0.05 | 0.05 | 62 | 1016.9 |
| 20260905170723 | 34 | 1 | 4.8 | 19.3 | 0.00 | 0.05 | 0.05 | 61 | 1016.8 |
| 20260905170625 | 34 | 6 | 4.8 | 19.3 | 0.00 | 0.05 | 0.05 | 62 | 1016.8 |
| 20260905170517 | 34 | 257 | 4.8 | 19.3 | 0.00 | 0.05 | 0.05 | 63 | 1016.8 |
| 20260905170418 | 34 | 111 | 3.2 | 19.3 | 0.00 | 0.05 | 0.05 | 61 | 1016.9 |
| 20260905170319 | 34 | 272 | 3.2 | 19.3 | 0.00 | 0.05 | 0.05 | 62 | 1016.8 |
| 20260905170218 | 34 | 287 | 3.2 | 19.3 | 0.00 | 0.05 | 0.05 | 61 | 1016.9 |
| 20260905170118 | 34 | 129 | 1.6 | 19.3 | 0.00 | 0.05 | 0.05 | 63 | 1016.9 |
| 20260905170012 | 34 | 58 | 1.6 | 16.1 | 0.00 | 0.05 | 0.05 | 62 | 1016.9 |
| 20260905165950 | 34 | 58 | 1.6 | 9.7 | 0.00 | 0.05 | 0.05 | 62 | 1017.2 |
| 20260905165813 | 34 | 309 | 1.6 | 6.4 | 0.00 | 0.05 | 0.05 | 63 | 1017.0 |
| 20260905165711 | 34 | 275 | 3.2 | 14.5 | 0.00 | 0.05 | 0.05 | 62 | 1017.0 |
| 20260905165611 | 34 | 22 | 1.6 | 14.5 | 0.00 | 0.05 | 0.05 | 64 | 1017.2 |
| 20260905165507 | 34 | 274 | 3.2 | 14.5 | 0.00 | 0.05 | 0.05 | 67 | 1017.3 |
| 20260905165405 | 34 | 71 | 3.2 | 14.5 | 0.00 | 0.05 | 0.05 | 63 | 1017.3 |
| 20260905165306 | 34 | 16 | 3.2 | 14.5 | 0.00 | 0.05 | 0.05 | 63 | 1017.2 |
| 20260905165203 | 34 | 293 | 3.2 | 14.5 | 0.00 | 0.05 | 0.05 | 62 | 1017.2 |
| 20260905165105 | 34 | 43 | 3.2 | 14.5 | 0.00 | 0.05 | 0.05 | 63 | 1017.3 |
| 20260905165000 | 33 | 68 | 3.2 | 14.5 | 0.00 | 0.05 | 0.05 | 62 | 1017.3 |
| 20260905164901 | 33 | 11 | 3.2 | 14.5 | 0.00 | 0.05 | 0.05 | 63 | 1017.3 |
| 20260905164759 | 33 | 342 | 3.2 | 14.5 | 0.00 | 0.05 | 0.05 | 62 | 1017.3 |
| 20260905164701 | 33 | 58 | 3.2 | 12.9 | 0.00 | 0.05 | 0.05 | 63 | 1017.2 |
| 20260905164559 | 33 | 44 | 3.2 | 12.9 | 0.00 | 0.05 | 0.05 | 64 | 1017.2 |
| 20260905164459 | 33 | 11 | 3.2 | 12.9 | 0.00 | 0.05 | 0.05 | 63 | 1017.2 |
| 20260905164400 | 33 | 9 | 3.2 | 12.9 | 0.00 | 0.05 | 0.05 | 64 | 1017.3 |
| 20260905164300 | 33 | 283 | 3.2 | 12.9 | 0.00 | 0.05 | 0.05 | 64 | 1017.3 |
| 20260905164159 | 33 | 97 | 3.2 | 12.9 | 0.00 | 0.05 | 0.05 | 66 | 1017.4 |
| 20260905164059 | 33 | 58 | 3.2 | 12.9 | 0.00 | 0.05 | 0.05 | 63 | 1017.4 |
| 20260905163958 | 33 | 75 | 3.2 | 11.3 | 0.00 | 0.05 | 0.05 | 63 | 1017.4 |
| 20260905163855 | 33 | 333 | 3.2 | 11.3 | 0.00 | 0.05 | 0.05 | 64 | 1017.4 |
| 20260905163757 | 33 | 343 | 3.2 | 11.3 | 0.00 | 0.05 | 0.05 | 64 | 1017.2 |
| 20260905163703 | 33 | 14 | 3.2 | 9.7 | 0.00 | 0.05 | 0.05 | 66 | 1017.3 |
| 20260905163553 | 33 | 91 | 3.2 | 9.7 | 0.00 | 0.05 | 0.05 | 64 | 1017.2 |
| 20260905163455 | 33 | 18 | 3.2 | 9.7 | 0.00 | 0.05 | 0.05 | 63 | 1017.3 |
| 20260905163354 | 33 | 260 | 1.6 | 9.7 | 0.00 | 0.05 | 0.05 | 64 | 1017.2 |
| 20260905163254 | 33 | 182 | 1.6 | 9.7 | 0.00 | 0.05 | 0.05 | 64 | 1017.3 |
| 20260905163154 | 33 | 243 | 1.6 | 9.7 | 0.00 | 0.05 | 0.05 | 66 | 1017.4 |
| 20260905163054 | 33 | 58 | 1.6 | 9.7 | 0.00 | 0.05 | 0.05 | 65 | 1017.4 |
| 20260905163003 | 33 | 330 | 1.6 | 9.7 | 0.00 | 0.05 | 0.05 | 65 | 1017.3 |
| 20260905162945 | 33 | 321 | 1.6 | 9.7 | 0.00 | 0.05 | 0.05 | 64 | 1017.3 |
| 20260905162754 | 33 | 46 | 1.6 | 9.7 | 0.00 | 0.05 | 0.05 | 66 | 1017.3 |
| 20260905162654 | 33 | 24 | 3.2 | 9.7 | 0.00 | 0.05 | 0.05 | 67 | 1017.4 |
| 20260905162555 | 33 | 24 | 3.2 | 12.9 | 0.00 | 0.05 | 0.05 | 67 | 1017.4 |
| 20260905162454 | 33 | 13 | 3.2 | 12.9 | 0.00 | 0.05 | 0.05 | 69 | 1017.5 |
| 20260905162255 | 33 | 32 | 3.2 | 12.9 | 0.00 | 0.05 | 0.05 | 65 | 1017.5 |
| 20260905162214 | 33 | 59 | 3.2 | 12.9 | 0.00 | 0.05 | 0.05 | 68 | 1017.5 |
| 20260905162047 | 33 | 44 | 1.6 | 12.9 | 0.00 | 0.05 | 0.05 | 65 | 1017.5 |
| 20260905162000 | 33 | 56 | 1.6 | 12.9 | 0.00 | 0.05 | 0.05 | 66 | 1017.5 |
| 20260905161944 | 33 | 67 | 1.6 | 12.9 | 0.00 | 0.05 | 0.05 | 64 | 1017.5 |
| 20260905161748 | 33 | 333 | 1.6 | 12.9 | 0.00 | 0.05 | 0.05 | 66 | 1017.5 |
| 20260905161648 | 33 | 4 | 1.6 | 12.9 | 0.00 | 0.05 | 0.05 | 65 | 1017.5 |
| 20260905161548 | 33 | 47 | 0.0 | 8.0 | 0.00 | 0.05 | 0.05 | 67 | 1017.5 |
| 20260905161448 | 33 | 288 | 0.0 | 8.0 | 0.00 | 0.05 | 0.05 | 65 | 1017.5 |
| 20260905161349 | 33 | 317 | 0.0 | 8.0 | 0.00 | 0.05 | 0.05 | 67 | 1017.5 |
| 20260905161247 | 33 | 19 | 0.0 | 8.0 | 0.00 | 0.05 | 0.05 | 66 | 1017.4 |
| 20260905161147 | 33 | 254 | 0.0 | 8.0 | 0.00 | 0.05 | 0.05 | 65 | 1017.4 |
| 20260905161049 | 33 | 21 | 1.6 | 9.7 | 0.00 | 0.05 | 0.05 | 65 | 1017.4 |
| 20260905160949 | 33 | 311 | 1.6 | 14.5 | 0.00 | 0.05 | 0.05 | 67 | 1017.5 |
| 20260905160743 | 33 | 41 | 1.6 | 14.5 | 0.00 | 0.05 | 0.05 | 67 | 1017.3 |
| 20260905160644 | 33 | 43 | 1.6 | 14.5 | 0.00 | 0.05 | 0.05 | 65 | 1017.4 |
| 20260905160544 | 33 | 47 | 1.6 | 14.5 | 0.00 | 0.05 | 0.05 | 66 | 1017.4 |
| 20260905160444 | 33 | 38 | 3.2 | 14.5 | 0.00 | 0.05 | 0.05 | 69 | 1017.5 |
| 20260905160244 | 33 | 25 | 3.2 | 14.5 | 0.00 | 0.05 | 0.05 | 67 | 1017.5 |
| 20260905160144 | 33 | 250 | 3.2 | 14.5 | 0.00 | 0.05 | 0.05 | 68 | 1017.5 |
| 20260905160044 | 33 | 48 | 1.6 | 14.5 | 0.00 | 0.05 | 0.05 | 65 | 1017.4 |
| 20260905155943 | 33 | 328 | 1.6 | 12.9 | 0.00 | 0.05 | 0.05 | 67 | 1017.5 |
| 20260905155845 | 33 | 48 | 1.6 | 12.9 | 0.00 | 0.05 | 0.05 | 66 | 1017.5 |
| 20260905155743 | 33 | 355 | 1.6 | 9.7 | 0.00 | 0.05 | 0.05 | 66 | 1017.5 |
| 20260905155645 | 33 | 34 | 1.6 | 9.7 | 0.00 | 0.05 | 0.05 | 67 | 1017.5 |
| 20260905155545 | 33 | 307 | 3.2 | 9.7 | 0.00 | 0.05 | 0.05 | 65 | 1017.5 |
| 20260905155443 | 33 | 269 | 1.6 | 9.7 | 0.00 | 0.05 | 0.05 | 67 | 1017.6 |
| 20260905155345 | 33 | 30 | 1.6 | 9.7 | 0.00 | 0.05 | 0.05 | 66 | 1017.6 |
| 20260905155243 | 33 | 79 | 1.6 | 9.7 | 0.00 | 0.05 | 0.05 | 67 | 1017.5 |
| 20260905155144 | 33 | 41 | 1.6 | 9.7 | 0.00 | 0.05 | 0.05 | 68 | 1017.5 |
| 20260905155044 | 33 | 5 | 1.6 | 9.7 | 0.00 | 0.05 | 0.05 | 67 | 1017.6 |
| 20260905154941 | 33 | 51 | 3.2 | 9.7 | 0.00 | 0.05 | 0.05 | 66 | 1017.6 |
| 20260905154841 | 33 | 54 | 1.6 | 9.7 | 0.00 | 0.05 | 0.05 | 67 | 1017.5 |
| 20260905154740 | 33 | 328 | 1.6 | 8.0 | 0.00 | 0.05 | 0.05 | 67 | 1017.6 |
| 20260905154641 | 33 | 49 | 1.6 | 8.0 | 0.00 | 0.05 | 0.05 | 67 | 1017.5 |
| 20260905154539 | 33 | 316 | 1.6 | 8.0 | 0.00 | 0.05 | 0.05 | 67 | 1017.5 |
| 20260905154439 | 33 | 269 | 1.6 | 8.0 | 0.00 | 0.05 | 0.05 | 70 | 1017.6 |
| 20260905154239 | 33 | 336 | 1.6 | 8.0 | 0.00 | 0.05 | 0.05 | 70 | 1017.5 |
| 20260905154139 | 33 | 246 | 1.6 | 8.0 | 0.00 | 0.05 | 0.05 | 68 | 1017.6 |
| 20260905154040 | 33 | 166 | 1.6 | 8.0 | 0.00 | 0.05 | 0.05 | 68 | 1017.5 |
| 20260905153940 | 33 | 212 | 0.0 | 6.4 | 0.00 | 0.05 | 0.05 | 69 | 1017.6 |
| 20260905153841 | 33 | 269 | 0.0 | 6.4 | 0.00 | 0.05 | 0.05 | 68 | 1017.7 |
| 20260905153739 | 33 | 259 | 1.6 | 6.4 | 0.00 | 0.05 | 0.05 | 68 | 1017.7 |
| 20260905153639 | 33 | 344 | 1.6 | 6.4 | 0.00 | 0.05 | 0.05 | 68 | 1017.6 |
| 20260905153539 | 33 | 13 | 1.6 | 6.4 | 0.00 | 0.05 | 0.05 | 69 | 1017.6 |
| 20260905153439 | 33 | 14 | 1.6 | 6.4 | 0.00 | 0.05 | 0.05 | 68 | 1017.6 |
| 20260905153339 | 33 | 13 | 1.6 | 6.4 | 0.00 | 0.05 | 0.05 | 68 | 1017.6 |
| 20260905153241 | 33 | 338 | 1.6 | 6.4 | 0.00 | 0.05 | 0.05 | 68 | 1017.5 |
| 20260905153140 | 33 | 326 | 1.6 | 8.0 | 0.00 | 0.05 | 0.05 | 72 | 1017.6 |
| 20260905153036 | 33 | 242 | 1.6 | 8.0 | 0.00 | 0.05 | 0.05 | 70 | 1017.7 |
| 20260905152956 | 33 | 285 | 1.6 | 8.0 | 0.00 | 0.05 | 0.05 | 68 | 1017.7 |
| 20260905152937 | 33 | 226 | 1.6 | 8.0 | 0.00 | 0.05 | 0.05 | 70 | 1017.8 |
| 20260905152735 | 33 | 200 | 1.6 | 8.0 | 0.00 | 0.05 | 0.05 | 68 | 1017.8 |
| 20260905152636 | 33 | 56 | 1.6 | 8.0 | 0.00 | 0.05 | 0.05 | 71 | 1017.8 |
| 20260905152535 | 33 | 277 | 1.6 | 8.0 | 0.00 | 0.05 | 0.05 | 69 | 1017.8 |
| 20260905152436 | 33 | 287 | 1.6 | 8.0 | 0.00 | 0.05 | 0.05 | 68 | 1017.9 |
| 20260905152337 | 33 | 236 | 1.6 | 8.0 | 0.00 | 0.05 | 0.05 | 69 | 1017.7 |
| 20260905152236 | 33 | 1 | 1.6 | 8.0 | 0.00 | 0.05 | 0.05 | 67 | 1017.7 |
| 20260905152135 | 33 | 359 | 0.0 | 8.0 | 0.00 | 0.05 | 0.05 | 71 | 1017.7 |
| 20260905152036 | 33 | 17 | 0.0 | 8.0 | 0.00 | 0.05 | 0.05 | 69 | 1017.8 |
| 20260905151935 | 33 | 316 | 0.0 | 3.2 | 0.00 | 0.05 | 0.05 | 71 | 1017.8 |
| 20260905151735 | 32 | 155 | 0.0 | 3.2 | 0.00 | 0.05 | 0.05 | 69 | 1017.7 |
| 20260905151636 | 32 | 200 | 0.0 | 3.2 | 0.00 | 0.05 | 0.05 | 69 | 1017.6 |
| 20260905151535 | 32 | 65 | 0.0 | 1.6 | 0.00 | 0.05 | 0.05 | 71 | 1017.7 |
| 20260905151435 | 32 | 59 | 0.0 | 1.6 | 0.00 | 0.05 | 0.05 | 71 | 1017.7 |
| 20260905151237 | 32 | 160 | 0.0 | 3.2 | 0.00 | 0.05 | 0.05 | 70 | 1017.6 |
| 20260905151132 | 32 | 72 | 0.0 | 3.2 | 0.00 | 0.05 | 0.05 | 70 | 1017.6 |
| 20260905151033 | 32 | 278 | 0.0 | 4.8 | 0.00 | 0.05 | 0.05 | 72 | 1017.6 |
| 20260905150931 | 32 | 272 | 1.6 | 8.0 | 0.00 | 0.05 | 0.05 | 71 | 1017.6 |
| 20260905150733 | 32 | 13 | 1.6 | 8.0 | 0.00 | 0.05 | 0.05 | 72 | 1017.6 |
| 20260905150631 | 32 | 348 | 1.6 | 8.0 | 0.00 | 0.05 | 0.05 | 72 | 1017.7 |
| 20260905150531 | 32 | 348 | 1.6 | 8.0 | 0.00 | 0.05 | 0.05 | 71 | 1017.6 |
| 20260905150431 | 32 | 262 | 1.6 | 8.0 | 0.00 | 0.05 | 0.05 | 73 | 1017.6 |
| 20260905150233 | 32 | 233 | 1.6 | 8.0 | 0.00 | 0.05 | 0.05 | 75 | 1017.6 |
| 20260905150131 | 32 | 231 | 3.2 | 8.0 | 0.00 | 0.05 | 0.05 | 71 | 1017.6 |
| 20260905150031 | 31 | 221 | 3.2 | 9.7 | 0.00 | 0.05 | 0.05 | 71 | 1017.6 |
| 20260905145933 | 31 | 192 | 1.6 | 9.7 | 0.00 | 0.05 | 0.05 | 74 | 1017.6 |
| 20260905145731 | 31 | 212 | 3.2 | 9.7 | 0.00 | 0.05 | 0.05 | 73 | 1017.7 |
| 20260905145633 | 31 | 213 | 3.2 | 9.7 | 0.00 | 0.05 | 0.05 | 74 | 1017.7 |
| 20260905145533 | 31 | 281 | 3.2 | 9.7 | 0.00 | 0.05 | 0.05 | 73 | 1017.7 |
| 20260905145432 | 31 | 302 | 3.2 | 9.7 | 0.00 | 0.05 | 0.05 | 75 | 1017.6 |
| 20260905145226 | 31 | 240 | 3.2 | 9.7 | 0.00 | 0.05 | 0.05 | 74 | 1017.7 |
| 20260905145127 | 31 | 219 | 1.6 | 9.7 | 0.00 | 0.05 | 0.05 | 74 | 1017.7 |
| 20260905145026 | 31 | 161 | 1.6 | 6.4 | 0.00 | 0.05 | 0.05 | 75 | 1017.7 |
| 20260905144925 | 31 | 277 | 1.6 | 6.4 | 0.00 | 0.05 | 0.05 | 75 | 1017.7 |
| 20260905144723 | 31 | 186 | 1.6 | 6.4 | 0.00 | 0.05 | 0.05 | 77 | 1017.8 |
| 20260905144625 | 31 | 171 | 1.6 | 4.8 | 0.00 | 0.05 | 0.05 | 78 | 1017.7 |
| 20260905144522 | 31 | 132 | 1.6 | 4.8 | 0.00 | 0.05 | 0.05 | 77 | 1017.8 |
| 20260905144443 | 31 | 145 | 1.6 | 8.0 | 0.00 | 0.05 | 0.05 | 77 | 1017.9 |
| 20260905144424 | 31 | 266 | 3.2 | 8.0 | 0.00 | 0.05 | 0.05 | 76 | 1017.9 |
| 20260905144214 | 30 | 276 | 3.2 | 8.0 | 0.00 | 0.05 | 0.05 | 78 | 1017.9 |
| 20260905144113 | 30 | 217 | 3.2 | 8.0 | 0.00 | 0.05 | 0.05 | 78 | 1017.9 |
| 20260905144014 | 30 | 186 | 3.2 | 8.0 | 0.00 | 0.05 | 0.05 | 77 | 1017.9 |
| 20260905143936 | 30 | 134 | 3.2 | 8.0 | 0.00 | 0.05 | 0.05 | 77 | 1017.9 |
| 20260905143919 | 30 | 183 | 3.2 | 8.0 | 0.00 | 0.05 | 0.05 | 79 | 1017.8 |
| 20260905143711 | 30 | 147 | 3.2 | 8.0 | 0.00 | 0.05 | 0.05 | 76 | 1017.9 |
| 20260905143613 | 30 | 192 | 3.2 | 8.0 | 0.00 | 0.05 | 0.05 | 76 | 1017.9 |
| 20260905143509 | 30 | 214 | 1.6 | 8.0 | 0.00 | 0.05 | 0.05 | 78 | 1018.0 |
| 20260905143408 | 30 | 181 | 1.6 | 8.0 | 0.00 | 0.05 | 0.05 | 77 | 1018.0 |
| 20260905143308 | 30 | 164 | 1.6 | 8.0 | 0.00 | 0.05 | 0.05 | 78 | 1018.0 |
| 20260905143206 | 30 | 146 | 1.6 | 8.0 | 0.00 | 0.05 | 0.05 | 77 | 1018.0 |
| 20260905143105 | 30 | 179 | 1.6 | 6.4 | 0.00 | 0.05 | 0.05 | 77 | 1018.0 |
| 20260905143003 | 30 | 162 | 1.6 | 6.4 | 0.00 | 0.05 | 0.05 | 77 | 1017.9 |
| 20260905142902 | 30 | 165 | 1.6 | 6.4 | 0.00 | 0.05 | 0.05 | 77 | 1018.0 |
| 20260905142803 | 30 | 219 | 1.6 | 6.4 | 0.00 | 0.05 | 0.05 | 76 | 1017.9 |
| 20260905142657 | 30 | 182 | 1.6 | 6.4 | 0.00 | 0.05 | 0.05 | 78 | 1017.9 |
| 20260905142557 | 30 | 213 | 1.6 | 9.7 | 0.00 | 0.05 | 0.05 | 77 | 1017.9 |
| 20260905142456 | 30 | 215 | 1.6 | 9.7 | 0.00 | 0.05 | 0.05 | 78 | 1017.8 |
| 20260905142355 | 30 | 206 | 1.6 | 9.7 | 0.00 | 0.05 | 0.05 | 78 | 1017.9 |
| 20260905142256 | 30 | 264 | 1.6 | 9.7 | 0.00 | 0.05 | 0.05 | 79 | 1017.9 |
| 20260905142154 | 30 | 196 | 1.6 | 9.7 | 0.00 | 0.05 | 0.05 | 78 | 1017.8 |
| 20260905142053 | 30 | 216 | 1.6 | 9.7 | 0.00 | 0.05 | 0.05 | 79 | 1017.9 |
| 20260905141955 | 30 | 250 | 3.2 | 9.7 | 0.00 | 0.05 | 0.05 | 78 | 1017.9 |
| 20260905141851 | 30 | 141 | 3.2 | 9.7 | 0.00 | 0.05 | 0.05 | 79 | 1017.8 |
| 20260905141750 | 30 | 263 | 3.2 | 9.7 | 0.00 | 0.05 | 0.05 | 80 | 1017.8 |
| 20260905141645 | 30 | 245 | 3.2 | 9.7 | 0.00 | 0.05 | 0.05 | 79 | 1017.8 |
| 20260905141545 | 30 | 217 | 3.2 | 9.7 | 0.00 | 0.05 | 0.05 | 80 | 1017.7 |
| 20260905141444 | 30 | 216 | 3.2 | 9.7 | 0.00 | 0.05 | 0.05 | 80 | 1017.8 |
| 20260905141343 | 30 | 197 | 1.6 | 9.7 | 0.00 | 0.05 | 0.05 | 80 | 1017.7 |
| 20260905141244 | 29 | 190 | 3.2 | 9.7 | 0.00 | 0.05 | 0.05 | 79 | 1017.8 |
| 20260905141139 | 29 | 197 | 3.2 | 9.7 | 0.00 | 0.05 | 0.05 | 80 | 1017.8 |
| 20260905141039 | 29 | 213 | 1.6 | 9.7 | 0.00 | 0.05 | 0.05 | 79 | 1017.7 |
| 20260905140941 | 29 | 180 | 1.6 | 6.4 | 0.00 | 0.05 | 0.05 | 80 | 1017.8 |
| 20260905140841 | 29 | 270 | 1.6 | 6.4 | 0.00 | 0.05 | 0.05 | 80 | 1017.8 |
| 20260905140738 | 29 | 219 | 1.6 | 6.4 | 0.00 | 0.05 | 0.05 | 81 | 1017.7 |
| 20260905140633 | 29 | 222 | 1.6 | 6.4 | 0.00 | 0.05 | 0.05 | 80 | 1017.7 |
| 20260905140533 | 29 | 201 | 1.6 | 6.4 | 0.00 | 0.05 | 0.05 | 80 | 1017.8 |
| 20260905140435 | 29 | 206 | 1.6 | 6.4 | 0.00 | 0.05 | 0.05 | 81 | 1017.7 |
| 20260905140334 | 29 | 227 | 1.6 | 6.4 | 0.00 | 0.05 | 0.05 | 81 | 1017.7 |
| 20260905140231 | 29 | 187 | 1.6 | 6.4 | 0.00 | 0.05 | 0.05 | 81 | 1017.7 |
| 20260905140125 | 29 | 224 | 1.6 | 4.8 | 0.00 | 0.05 | 0.05 | 81 | 1017.6 |
| 20260905140025 | 29 | 186 | 1.6 | 4.8 | 0.00 | 0.05 | 0.05 | 82 | 1017.6 |
| 20260905135925 | 29 | 211 | 1.6 | 4.8 | 0.00 | 0.05 | 0.05 | 83 | 1017.5 |
| 20260905135826 | 29 | 221 | 0.0 | 4.8 | 0.00 | 0.05 | 0.05 | 82 | 1017.6 |
| 20260905135725 | 29 | 188 | 1.6 | 4.8 | 0.00 | 0.05 | 0.05 | 83 | 1017.6 |
| 20260905135624 | 28 | 172 | 1.6 | 4.8 | 0.00 | 0.05 | 0.05 | 81 | 1017.5 |
| 20260905135524 | 28 | 167 | 1.6 | 6.4 | 0.00 | 0.05 | 0.05 | 81 | 1017.5 |
| 20260905135423 | 28 | 184 | 1.6 | 6.4 | 0.00 | 0.05 | 0.05 | 83 | 1017.5 |
| 20260905135220 | 28 | 182 | 1.6 | 6.4 | 0.00 | 0.05 | 0.05 | 83 | 1017.7 |
| 20260905135115 | 28 | 193 | 1.6 | 6.4 | 0.00 | 0.05 | 0.05 | 83 | 1017.6 |
| 20260905135015 | 28 | 167 | 1.6 | 6.4 | 0.00 | 0.05 | 0.05 | 83 | 1017.6 |
| 20260905134915 | 28 | 242 | 1.6 | 6.4 | 0.00 | 0.05 | 0.05 | 84 | 1017.7 |
| 20260905134814 | 28 | 237 | 1.6 | 6.4 | 0.00 | 0.05 | 0.05 | 84 | 1017.7 |
| 20260905134714 | 28 | 245 | 1.6 | 6.4 | 0.00 | 0.05 | 0.05 | 84 | 1017.7 |
| 20260905134611 | 28 | 229 | 1.6 | 6.4 | 0.00 | 0.05 | 0.05 | 84 | 1017.6 |
| 20260905134511 | 28 | 205 | 1.6 | 4.8 | 0.00 | 0.05 | 0.05 | 85 | 1017.6 |
| 20260905134409 | 28 | 205 | 1.6 | 4.8 | 0.00 | 0.05 | 0.05 | 85 | 1017.6 |
| 20260905134208 | 28 | 203 | 1.6 | 4.8 | 0.00 | 0.05 | 0.05 | 86 | 1017.6 |
| 20260905134101 | 28 | 171 | 1.6 | 4.8 | 0.00 | 0.05 | 0.05 | 86 | 1017.6 |
| 20260905134001 | 27 | 159 | 1.6 | 4.8 | 0.00 | 0.05 | 0.05 | 87 | 1017.7 |
| 20260905133901 | 27 | 173 | 1.6 | 4.8 | 0.00 | 0.05 | 0.05 | 87 | 1017.6 |
| 20260905133801 | 27 | 161 | 1.6 | 4.8 | 0.00 | 0.05 | 0.05 | 87 | 1017.6 |
| 20260905133702 | 27 | 175 | 1.6 | 3.2 | 0.00 | 0.05 | 0.05 | 88 | 1017.7 |
| 20260905133602 | 27 | 285 | 0.0 | 3.2 | 0.00 | 0.05 | 0.05 | 88 | 1017.7 |
| 20260905133501 | 27 | 203 | 0.0 | 3.2 | 0.00 | 0.05 | 0.05 | 88 | 1017.7 |
| 20260905133358 | 27 | 204 | 0.0 | 3.2 | 0.00 | 0.05 | 0.05 | 88 | 1017.7 |
| 20260905133259 | 27 | 171 | 0.0 | 3.2 | 0.00 | 0.05 | 0.05 | 88 | 1017.6 |
| 20260905133155 | 27 | 163 | 0.0 | 3.2 | 0.00 | 0.05 | 0.05 | 89 | 1017.6 |
| 20260905133053 | 27 | 171 | 0.0 | 3.2 | 0.00 | 0.05 | 0.05 | 89 | 1017.7 |
| 20260905132953 | 27 | 171 | 0.0 | 1.6 | 0.00 | 0.05 | 0.05 | 89 | 1017.6 |
| 20260905132853 | 27 | 166 | 0.0 | 1.6 | 0.00 | 0.05 | 0.05 | 89 | 1017.5 |
| 20260905132752 | 27 | 203 | 0.0 | 1.6 | 0.00 | 0.05 | 0.05 | 90 | 1017.6 |
| 20260905132650 | 26 | 203 | 0.0 | 1.6 | 0.00 | 0.05 | 0.05 | 90 | 1017.6 |
| 20260905132547 | 26 | 203 | 0.0 | 1.6 | 0.00 | 0.05 | 0.05 | 90 | 1017.6 |
| 20260905132447 | 26 | 194 | 0.0 | 1.6 | 0.00 | 0.05 | 0.05 | 90 | 1017.5 |
| 20260905132347 | 26 | 226 | 0.0 | 1.6 | 0.00 | 0.05 | 0.05 | 91 | 1017.5 |
| 20260905132249 | 26 | 273 | 0.0 | 1.6 | 0.00 | 0.05 | 0.05 | 91 | 1017.5 |
| 20260905132143 | 26 | 272 | 0.0 | 1.6 | 0.00 | 0.05 | 0.05 | 91 | 1017.4 |
| 20260905132041 | 26 | 166 | 0.0 | 1.6 | 0.00 | 0.05 | 0.05 | 92 | 1017.5 |
| 20260905131943 | 26 | 213 | 0.0 | 1.6 | 0.00 | 0.05 | 0.05 | 91 | 1017.5 |
| 20260905131918 | 26 | 204 | 0.0 | 1.6 | 0.00 | 0.05 | 0.05 | 91 | 1017.4 |
| 20260905131739 | 26 | 207 | 0.0 | 1.6 | 0.00 | 0.05 | 0.05 | 92 | 1017.4 |
| 20260905131638 | 26 | 217 | 0.0 | 3.2 | 0.00 | 0.05 | 0.05 | 92 | 1017.4 |
| 20260905131537 | 26 | 217 | 0.0 | 3.2 | 0.00 | 0.05 | 0.05 | 92 | 1017.5 |
| 20260905131436 | 26 | 217 | 0.0 | 3.2 | 0.00 | 0.05 | 0.05 | 92 | 1017.4 |
| 20260905131334 | 26 | 217 | 0.0 | 3.2 | 0.00 | 0.05 | 0.05 | 92 | 1017.4 |
| 20260905131234 | 25 | 215 | 0.0 | 3.2 | 0.00 | 0.05 | 0.05 | 92 | 1017.5 |
| 20260905131131 | 25 | 214 | 0.0 | 3.2 | 0.00 | 0.05 | 0.05 | 92 | 1017.4 |
| 20260905131025 | 25 | 218 | 0.0 | 3.2 | 0.00 | 0.05 | 0.05 | 92 | 1017.4 |
| 20260905130923 | 25 | 218 | 0.0 | 3.2 | 0.00 | 0.05 | 0.05 | 92 | 1017.5 |
| 20260905130824 | 25 | 213 | 0.0 | 3.2 | 0.00 | 0.05 | 0.05 | 92 | 1017.4 |
| 20260905130724 | 25 | 205 | 0.0 | 3.2 | 0.00 | 0.05 | 0.05 | 93 | 1017.5 |
| 20260905130624 | 25 | 160 | 0.0 | 3.2 | 0.00 | 0.05 | 0.05 | 93 | 1017.5 |
| 20260905130519 | 25 | 184 | 0.0 | 3.2 | 0.00 | 0.05 | 0.05 | 93 | 1017.5 |
| 20260905130418 | 25 | 202 | 0.0 | 3.2 | 0.00 | 0.05 | 0.05 | 93 | 1017.5 |
| 20260905130318 | 25 | 212 | 0.0 | 3.2 | 0.00 | 0.05 | 0.05 | 93 | 1017.5 |
| 20260905130219 | 25 | 198 | 0.0 | 3.2 | 0.00 | 0.05 | 0.05 | 94 | 1017.5 |
| 20260905130118 | 25 | 221 | 0.0 | 3.2 | 0.00 | 0.05 | 0.05 | 94 | 1017.6 |
| 20260905130013 | 25 | 221 | 1.6 | 4.8 | 0.00 | 0.05 | 0.05 | 95 | 1017.5 |
| 20260905125912 | 25 | 221 | 1.6 | 4.8 | 0.00 | 0.05 | 0.05 | 94 | 1017.5 |
| 20260905125811 | 25 | 221 | 1.6 | 4.8 | 0.00 | 0.05 | 0.05 | 94 | 1017.5 |
| 20260905125711 | 25 | 221 | 1.6 | 6.4 | 0.00 | 0.05 | 0.05 | 94 | 1017.5 |
| 20260905125611 | 25 | 234 | 1.6 | 6.4 | 0.00 | 0.05 | 0.05 | 95 | 1017.5 |
| 20260905125509 | 24 | 197 | 1.6 | 6.4 | 0.00 | 0.05 | 0.05 | 95 | 1017.5 |
| 20260905125411 | 24 | 215 | 1.6 | 6.4 | 0.00 | 0.05 | 0.05 | 95 | 1017.5 |
| 20260905125308 | 24 | 209 | 1.6 | 6.4 | 0.00 | 0.05 | 0.05 | 96 | 1017.5 |
| 20260905125207 | 24 | 170 | 1.6 | 6.4 | 0.00 | 0.05 | 0.05 | 96 | 1017.5 |
| 20260905125105 | 24 | 201 | 1.6 | 6.4 | 0.00 | 0.05 | 0.05 | 96 | 1017.5 |
| 20260905125002 | 24 | 162 | 1.6 | 6.4 | 0.00 | 0.05 | 0.05 | 96 | 1017.5 |
| 20260905124903 | 23 | 247 | 1.6 | 6.4 | 0.00 | 0.05 | 0.05 | 97 | 1017.5 |
| 20260905124801 | 23 | 193 | 0.0 | 6.4 | 0.00 | 0.05 | 0.05 | 97 | 1017.6 |
| 20260905124702 | 23 | 185 | 0.0 | 4.8 | 0.00 | 0.05 | 0.05 | 98 | 1017.5 |
| 20260905124559 | 23 | 187 | 0.0 | 4.8 | 0.00 | 0.05 | 0.05 | 98 | 1017.5 |
| 20260905124455 | 23 | 179 | 0.0 | 3.2 | 0.00 | 0.05 | 0.05 | 98 | 1017.6 |
| 20260905124353 | 23 | 235 | 0.0 | 3.2 | 0.00 | 0.05 | 0.05 | 98 | 1017.6 |
| 20260905124253 | 23 | 189 | 0.0 | 3.2 | 0.00 | 0.05 | 0.05 | 98 | 1017.5 |
| 20260905124154 | 23 | 224 | 0.0 | 3.2 | 0.00 | 0.05 | 0.05 | 99 | 1017.6 |
| 20260905124054 | 23 | 218 | 0.0 | 3.2 | 0.00 | 0.05 | 0.05 | 99 | 1017.6 |
| 20260905123950 | 23 | 197 | 0.0 | 3.2 | 0.00 | 0.05 | 0.05 | 99 | 1017.6 |
| 20260905123856 | 23 | 220 | 0.0 | 3.2 | 0.00 | 0.05 | 0.05 | 100 | 1017.6 |
| 20260905123838 | 23 | 162 | 0.0 | 3.2 | 0.00 | 0.05 | 0.05 | 100 | 1017.5 |
| 20260905123647 | 23 | 229 | 0.0 | 0.0 | 0.00 | 0.05 | 0.05 | 100 | 1017.7 |
| 20260905123548 | 23 | 309 | 0.0 | 0.0 | 0.00 | 0.05 | 0.05 | 99 | 1017.5 |
| 20260905123442 | 23 | 309 | 0.0 | 0.0 | 0.00 | 0.05 | 0.05 | 99 | 1017.6 |
| 20260905123341 | 23 | 309 | 0.0 | 0.0 | 0.00 | 0.05 | 0.05 | 99 | 1017.6 |
| 20260905123141 | 23 | 309 | 0.0 | 0.0 | 0.00 | 0.05 | 0.05 | 99 | 1017.6 |
| 20260905123041 | 23 | 309 | 0.0 | 0.0 | 0.00 | 0.05 | 0.05 | 99 | 1017.6 |
| 20260905122938 | 23 | 309 | 0.0 | 0.0 | 0.00 | 0.05 | 0.05 | 99 | 1017.6 |
| 20260905122843 | 23 | 309 | 0.0 | 0.0 | 0.00 | 0.05 | 0.05 | 99 | 1017.5 |
| 20260905122825 | 23 | 309 | 0.0 | 0.0 | 0.00 | 0.05 | 0.05 | 99 | 1017.5 |
| 20260905122636 | 22 | 309 | 0.0 | 0.0 | 0.00 | 0.05 | 0.05 | 99 | 1017.5 |
| 20260905122535 | 22 | 309 | 0.0 | 0.0 | 0.00 | 0.05 | 0.05 | 99 | 1017.5 |
| 20260905122437 | 22 | 309 | 0.0 | 0.0 | 0.00 | 0.05 | 0.05 | 99 | 1017.5 |
| 20260905122338 | 22 | 309 | 0.0 | 0.0 | 0.00 | 0.05 | 0.05 | 100 | 1017.5 |
| 20260905122320 | 22 | 309 | 0.0 | 0.0 | 0.00 | 0.05 | 0.05 | 100 | 1017.5 |
| 20260905122131 | 22 | 309 | 0.0 | 0.0 | 0.00 | 0.05 | 0.05 | 100 | 1017.5 |
| 20260905122030 | 22 | 309 | 0.0 | 0.0 | 0.00 | 0.05 | 0.05 | 100 | 1017.6 |
| 20260905121930 | 22 | 309 | 0.0 | 0.0 | 0.00 | 0.05 | 0.05 | 100 | 1017.5 |
| 20260905121834 | 22 | 309 | 0.0 | 0.0 | 0.00 | 0.05 | 0.05 | 100 | 1017.5 |
| 20260905121814 | 22 | 309 | 0.0 | 0.0 | 0.00 | 0.05 | 0.05 | 100 | 1017.5 |
| 20260905121626 | 22 | 309 | 0.0 | 0.0 | 0.00 | 0.05 | 0.05 | 100 | 1017.5 |
| 20260905121524 | 22 | 309 | 0.0 | 0.0 | 0.00 | 0.05 | 0.05 | 100 | 1017.5 |
| 20260905121417 | 22 | 309 | 0.0 | 0.0 | 0.00 | 0.05 | 0.05 | 100 | 1017.5 |
| 20260905121318 | 22 | 309 | 0.0 | 0.0 | 0.00 | 0.05 | 0.05 | 100 | 1017.6 |
| 20260905121218 | 22 | 309 | 0.0 | 1.6 | 0.00 | 0.05 | 0.05 | 100 | 1017.6 |
| 20260905121118 | 22 | 320 | 0.0 | 1.6 | 0.00 | 0.05 | 0.05 | 100 | 1017.6 |
| 20260905121017 | 22 | 320 | 0.0 | 1.6 | 0.00 | 0.05 | 0.05 | 100 | 1017.7 |
| 20260905120914 | 22 | 320 | 0.0 | 1.6 | 0.00 | 0.05 | 0.05 | 100 | 1017.6 |
| 20260905120810 | 22 | 320 | 0.0 | 1.6 | 0.00 | 0.05 | 0.05 | 100 | 1017.7 |
| 20260905120712 | 22 | 320 | 0.0 | 1.6 | 0.00 | 0.05 | 0.05 | 100 | 1017.6 |
| 20260905120613 | 22 | 320 | 0.0 | 1.6 | 0.00 | 0.05 | 0.05 | 100 | 1017.6 |
| 20260905120513 | 22 | 320 | 0.0 | 1.6 | 0.00 | 0.05 | 0.05 | 100 | 1017.6 |
| 20260905120412 | 22 | 219 | 0.0 | 1.6 | 0.00 | 0.05 | 0.05 | 100 | 1017.5 |
| 20260905120309 | 22 | 220 | 0.0 | 1.6 | 0.00 | 0.05 | 0.05 | 100 | 1017.6 |
| 20260905120209 | 22 | 225 | 0.0 | 1.6 | 0.00 | 0.05 | 0.05 | 100 | 1017.6 |
| 20260905120108 | 21 | 262 | 0.0 | 1.6 | 0.00 | 0.05 | 0.05 | 100 | 1017.5 |
| 20260905120005 | 21 | 195 | 0.0 | 1.6 | 0.00 | 0.05 | 0.05 | 100 | 1017.5 |
| 20260905115859 | 21 | 183 | 0.0 | 1.6 | 0.00 | 0.05 | 0.05 | 100 | 1017.5 |
| 20260905115800 | 21 | 326 | 0.0 | 0.0 | 0.00 | 0.05 | 0.05 | 100 | 1017.5 |
| 20260905115600 | 21 | 326 | 0.0 | 0.0 | 0.00 | 0.05 | 0.05 | 100 | 1017.5 |
| 20260905115505 | 21 | 326 | 0.0 | 0.0 | 0.00 | 0.05 | 0.05 | 100 | 1017.4 |
| 20260905115357 | 21 | 326 | 0.0 | 0.0 | 0.00 | 0.05 | 0.05 | 100 | 1017.4 |
| 20260905115257 | 21 | 326 | 0.0 | 0.0 | 0.00 | 0.05 | 0.05 | 100 | 1017.5 |
| 20260905115158 | 21 | 326 | 0.0 | 0.0 | 0.00 | 0.05 | 0.05 | 100 | 1017.5 |
| 20260905115056 | 21 | 8 | 0.0 | 0.0 | 0.00 | 0.05 | 0.05 | 100 | 1017.4 |
| 20260905114954 | 21 | 8 | 0.0 | 0.0 | 0.00 | 0.05 | 0.05 | 100 | 1017.4 |
| 20260905114852 | 21 | 8 | 0.0 | 0.0 | 0.00 | 0.05 | 0.05 | 100 | 1017.3 |
| 20260905114751 | 21 | 8 | 0.0 | 0.0 | 0.00 | 0.05 | 0.05 | 100 | 1017.3 |
| 20260905114652 | 21 | 8 | 0.0 | 0.0 | 0.00 | 0.05 | 0.05 | 100 | 1017.2 |
| 20260905114550 | 21 | 8 | 0.0 | 0.0 | 0.00 | 0.05 | 0.05 | 100 | 1017.2 |
| 20260905114448 | 21 | 8 | 0.0 | 0.0 | 0.00 | 0.05 | 0.05 | 100 | 1017.2 |
| 20260905114341 | 21 | 8 | 0.0 | 0.0 | 0.00 | 0.05 | 0.05 | 100 | 1017.2 |
| 20260905114242 | 21 | 8 | 0.0 | 0.0 | 0.00 | 0.05 | 0.05 | 100 | 1017.3 |
| 20260905114042 | 21 | 8 | 0.0 | 0.0 | 0.00 | 0.05 | 0.05 | 100 | 1017.3 |
| 20260905113942 | 21 | 8 | 0.0 | 0.0 | 0.00 | 0.05 | 0.05 | 100 | 1017.3 |
| 20260905113841 | 21 | 8 | 0.0 | 1.6 | 0.00 | 0.05 | 0.05 | 100 | 1017.4 |
| 20260905113740 | 21 | 8 | 0.0 | 1.6 | 0.00 | 0.05 | 0.05 | 100 | 1017.4 |
| 20260905113641 | 21 | 8 | 0.0 | 1.6 | 0.00 | 0.05 | 0.05 | 100 | 1017.3 |
| 20260905113538 | 21 | 8 | 0.0 | 1.6 | 0.00 | 0.05 | 0.05 | 100 | 1017.3 |
| 20260905113436 | 21 | 8 | 0.0 | 1.6 | 0.00 | 0.05 | 0.05 | 100 | 1017.4 |
| 20260905113335 | 21 | 8 | 0.0 | 1.6 | 0.00 | 0.05 | 0.05 | 100 | 1017.3 |
| 20260905113234 | 21 | 8 | 0.0 | 1.6 | 0.00 | 0.05 | 0.05 | 100 | 1017.4 |
| 20260905113134 | 21 | 8 | 0.0 | 1.6 | 0.00 | 0.05 | 0.05 | 100 | 1017.4 |
| 20260905113031 | 21 | 8 | 0.0 | 1.6 | 0.00 | 0.05 | 0.05 | 100 | 1017.4 |
| 20260905112930 | 21 | 8 | 0.0 | 1.6 | 0.00 | 0.05 | 0.05 | 100 | 1017.3 |
| 20260905112825 | 21 | 48 | 0.0 | 0.0 | 0.00 | 0.05 | 0.05 | 100 | 1017.4 |
| 20260905112725 | 21 | 48 | 0.0 | 0.0 | 0.00 | 0.05 | 0.05 | 100 | 1017.3 |
| 20260905112624 | 21 | 48 | 0.0 | 0.0 | 0.00 | 0.05 | 0.05 | 100 | 1017.3 |
| 20260905112523 | 21 | 48 | 0.0 | 0.0 | 0.00 | 0.05 | 0.05 | 100 | 1017.2 |
| 20260905112424 | 21 | 48 | 0.0 | 0.0 | 0.00 | 0.05 | 0.05 | 100 | 1017.2 |
| 20260905112317 | 21 | 48 | 0.0 | 0.0 | 0.00 | 0.05 | 0.05 | 100 | 1017.2 |
| 20260905112218 | 21 | 48 | 0.0 | 0.0 | 0.00 | 0.05 | 0.05 | 100 | 1017.2 |
| 20260905112018 | 21 | 48 | 0.0 | 0.0 | 0.00 | 0.05 | 0.05 | 100 | 1017.2 |
| 20260905111917 | 21 | 48 | 0.0 | 0.0 | 0.00 | 0.05 | 0.05 | 100 | 1017.2 |
| 20260905111813 | 21 | 50 | 0.0 | 0.0 | 0.00 | 0.05 | 0.05 | 100 | 1017.0 |
| 20260905111711 | 21 | 51 | 0.0 | 0.0 | 0.00 | 0.05 | 0.05 | 100 | 1017.2 |
| 20260905111612 | 21 | 51 | 0.0 | 0.0 | 0.00 | 0.05 | 0.05 | 100 | 1017.2 |
| 20260905111512 | 21 | 51 | 0.0 | 0.0 | 0.00 | 0.05 | 0.05 | 100 | 1017.2 |
| 20260905111411 | 21 | 50 | 0.0 | 0.0 | 0.00 | 0.05 | 0.05 | 100 | 1017.3 |
| 20260905111307 | 21 | 51 | 0.0 | 0.0 | 0.00 | 0.05 | 0.05 | 100 | 1017.2 |
| 20260905111206 | 21 | 51 | 0.0 | 0.0 | 0.00 | 0.05 | 0.05 | 100 | 1017.2 |
| 20260905111105 | 21 | 51 | 0.0 | 0.0 | 0.00 | 0.05 | 0.05 | 100 | 1017.3 |
| 20260905111006 | 21 | 50 | 0.0 | 0.0 | 0.00 | 0.05 | 0.05 | 100 | 1017.2 |
| 20260905110906 | 21 | 50 | 0.0 | 0.0 | 0.00 | 0.05 | 0.05 | 100 | 1017.2 |
| 20260905110801 | 21 | 50 | 0.0 | 0.0 | 0.00 | 0.05 | 0.05 | 100 | 1017.2 |
| 20260905110700 | 21 | 50 | 0.0 | 0.0 | 0.00 | 0.05 | 0.05 | 100 | 1017.2 |
| 20260905110559 | 21 | 50 | 0.0 | 0.0 | 0.00 | 0.05 | 0.05 | 100 | 1017.2 |
| 20260905110501 | 21 | 50 | 0.0 | 0.0 | 0.00 | 0.05 | 0.05 | 100 | 1017.2 |
| 20260905110400 | 21 | 50 | 0.0 | 0.0 | 0.00 | 0.05 | 0.05 | 100 | 1017.2 |
| 20260905110300 | 21 | 50 | 0.0 | 0.0 | 0.00 | 0.05 | 0.05 | 100 | 1017.2 |
| 20260905110157 | 21 | 50 | 0.0 | 0.0 | 0.00 | 0.05 | 0.05 | 100 | 1017.2 |
| 20260905110058 | 21 | 50 | 0.0 | 0.0 | 0.00 | 0.05 | 0.05 | 100 | 1017.0 |
| 20260905105956 | 21 | 50 | 0.0 | 0.0 | 0.00 | 0.05 | 0.05 | 100 | 1017.2 |
| 20260905105854 | 21 | 50 | 0.0 | 0.0 | 0.00 | 0.05 | 0.05 | 100 | 1017.0 |
| 20260905105749 | 21 | 50 | 0.0 | 0.0 | 0.00 | 0.05 | 0.05 | 100 | 1017.2 |